| time (UTC) | temp F | wind direction | speed knots | gust knots | rain 1hr in | rain 24hr in | rain mn in | humidity % | barometer mb |
| 20260902102307 | 56 | 3 | 1.7 | 6.1 | 0.00 | 0.00 | 0.00 | 95 | 1016.8 |
| 20260902102217 | 56 | 359 | 3.5 | 7.8 | 0.00 | 0.00 | 0.00 | 95 | 1016.8 |
| 20260902102203 | 56 | 358 | 3.5 | 7.8 | 0.00 | 0.00 | 0.00 | 95 | 1016.8 |
| 20260902102103 | 56 | 351 | 3.5 | 7.8 | 0.00 | 0.00 | 0.00 | 95 | 1016.7 |
| 20260902101903 | 56 | 5 | 2.6 | 7.8 | 0.00 | 0.00 | 0.00 | 95 | 1016.8 |
| 20260902101803 | 56 | 10 | 3.5 | 7.8 | 0.00 | 0.00 | 0.00 | 96 | 1016.8 |
| 20260902101703 | 56 | 18 | 5.2 | 7.8 | 0.00 | 0.00 | 0.00 | 96 | 1016.8 |
| 20260902101603 | 56 | 18 | 1.7 | 6.1 | 0.00 | 0.00 | 0.00 | 96 | 1016.6 |
| 20260902101503 | 56 | 6 | 2.6 | 9.6 | 0.00 | 0.00 | 0.00 | 96 | 1016.6 |
| 20260902101403 | 56 | 354 | 2.6 | 9.6 | 0.00 | 0.00 | 0.00 | 96 | 1016.7 |
| 20260902101318 | 56 | 351 | 1.7 | 9.6 | 0.00 | 0.00 | 0.00 | 96 | 1016.8 |
| 20260902101303 | 56 | 349 | 1.7 | 9.6 | 0.00 | 0.00 | 0.00 | 96 | 1016.8 |
| 20260902101203 | 56 | 347 | 3.5 | 9.6 | 0.00 | 0.00 | 0.00 | 96 | 1016.6 |
| 20260902101003 | 56 | 345 | 5.2 | 9.6 | 0.00 | 0.00 | 0.00 | 96 | 1016.7 |
| 20260902100903 | 55 | 358 | 3.5 | 7.0 | 0.00 | 0.00 | 0.00 | 96 | 1016.5 |
| 20260902100803 | 56 | 2 | 1.7 | 6.1 | 0.00 | 0.00 | 0.00 | 96 | 1016.7 |
| 20260902100703 | 56 | 6 | 1.7 | 3.5 | 0.00 | 0.00 | 0.00 | 96 | 1016.5 |
| 20260902100503 | 55 | 356 | 1.7 | 6.1 | 0.00 | 0.00 | 0.00 | 96 | 1016.6 |
| 20260902100403 | 56 | 351 | 1.7 | 6.1 | 0.00 | 0.00 | 0.00 | 96 | 1016.6 |
| 20260902100303 | 56 | 347 | 0.9 | 6.1 | 0.00 | 0.00 | 0.00 | 96 | 1016.6 |
| 20260902100203 | 56 | 357 | 0.9 | 7.0 | 0.00 | 0.00 | 0.00 | 96 | 1016.6 |
| 20260902100006 | 56 | 13 | 1.7 | 7.0 | 0.00 | 0.00 | 0.00 | 96 | 1016.6 |
| 20260902095903 | 56 | 13 | 1.7 | 7.0 | 0.00 | 0.00 | 0.00 | 96 | 1016.5 |
| 20260902095803 | 56 | 12 | 1.7 | 7.0 | 0.00 | 0.00 | 0.00 | 96 | 1016.6 |
| 20260902095703 | 56 | 12 | 3.5 | 7.0 | 0.00 | 0.00 | 0.00 | 96 | 1016.6 |
| 20260902095603 | 56 | 10 | 1.7 | 6.1 | 0.00 | 0.00 | 0.00 | 96 | 1016.4 |
| 20260902095503 | 56 | 13 | 2.6 | 6.1 | 0.00 | 0.00 | 0.00 | 96 | 1016.7 |
| 20260902095417 | 56 | 16 | 3.5 | 6.1 | 0.00 | 0.00 | 0.00 | 96 | 1016.6 |
| 20260902095403 | 56 | 17 | 3.5 | 6.1 | 0.00 | 0.00 | 0.00 | 96 | 1016.6 |
| 20260902095306 | 56 | 19 | 3.5 | 6.1 | 0.00 | 0.00 | 0.00 | 96 | 1016.7 |
| 20260902095103 | 55 | 10 | 1.7 | 3.5 | 0.00 | 0.00 | 0.00 | 96 | 1016.5 |
| 20260902095003 | 55 | 358 | 0.9 | 5.2 | 0.00 | 0.00 | 0.00 | 96 | 1016.5 |
| 20260902094917 | 55 | 359 | 1.7 | 5.2 | 0.00 | 0.00 | 0.00 | 96 | 1016.6 |
| 20260902094903 | 55 | 360 | 1.7 | 5.2 | 0.00 | 0.00 | 0.00 | 96 | 1016.6 |
| 20260902094803 | 55 | 360 | 1.7 | 5.2 | 0.00 | 0.00 | 0.00 | 96 | 1016.8 |
| 20260902094603 | 55 | 14 | 1.7 | 5.2 | 0.00 | 0.00 | 0.00 | 96 | 1016.6 |
| 20260902094503 | 56 | 30 | 2.6 | 5.2 | 0.00 | 0.00 | 0.00 | 96 | 1016.8 |
| 20260902094417 | 56 | 37 | 1.7 | 5.2 | 0.00 | 0.00 | 0.00 | 96 | 1016.5 |
| 20260902094403 | 56 | 39 | 1.7 | 5.2 | 0.00 | 0.00 | 0.00 | 96 | 1016.5 |
| 20260902094303 | 56 | 35 | 1.7 | 5.2 | 0.00 | 0.00 | 0.00 | 96 | 1016.9 |
| 20260902094103 | 56 | 37 | 2.6 | 5.2 | 0.00 | 0.00 | 0.00 | 96 | 1016.5 |
| 20260902094003 | 56 | 31 | 3.5 | 5.2 | 0.00 | 0.00 | 0.00 | 96 | 1016.4 |
| 20260902093916 | 56 | 21 | 1.7 | 3.5 | 0.00 | 0.00 | 0.00 | 96 | 1016.7 |
| 20260902093903 | 56 | 16 | 1.7 | 3.5 | 0.00 | 0.00 | 0.00 | 96 | 1016.6 |
| 20260902093803 | 56 | 20 | 1.7 | 3.5 | 0.00 | 0.00 | 0.00 | 96 | 1016.8 |
| 20260902093603 | 56 | 14 | 1.7 | 5.2 | 0.00 | 0.00 | 0.00 | 96 | 1016.5 |
| 20260902093503 | 56 | 13 | 0.9 | 5.2 | 0.00 | 0.00 | 0.00 | 96 | 1016.7 |
| 20260902093403 | 56 | 16 | 1.7 | 5.2 | 0.00 | 0.00 | 0.00 | 96 | 1016.7 |
| 20260902093303 | 56 | 16 | 1.7 | 5.2 | 0.00 | 0.00 | 0.00 | 96 | 1016.7 |
| 20260902093203 | 56 | 15 | 1.7 | 5.2 | 0.00 | 0.00 | 0.00 | 96 | 1016.7 |
| 20260902093103 | 56 | 9 | 0.9 | 3.5 | 0.00 | 0.00 | 0.00 | 96 | 1016.8 |
| 20260902093003 | 56 | 16 | 0.9 | 1.7 | 0.00 | 0.00 | 0.00 | 96 | 1016.9 |
| 20260902092903 | 56 | 14 | 0.9 | 1.7 | 0.00 | 0.00 | 0.00 | 96 | 1016.8 |
| 20260902092803 | 56 | 15 | 0.9 | 1.7 | 0.00 | 0.00 | 0.00 | 96 | 1016.8 |
| 20260902092703 | 56 | 22 | 0.9 | 1.7 | 0.00 | 0.00 | 0.00 | 96 | 1016.8 |
| 20260902092618 | 56 | 33 | 0.0 | 1.7 | 0.00 | 0.00 | 0.00 | 96 | 1016.9 |
| 20260902092603 | 56 | 34 | 0.0 | 1.7 | 0.00 | 0.00 | 0.00 | 96 | 1016.9 |
| 20260902092503 | 56 | 35 | 0.9 | 1.7 | 0.00 | 0.00 | 0.00 | 96 | 1016.8 |
| 20260902092305 | 56 | 35 | 0.0 | 3.5 | 0.00 | 0.00 | 0.00 | 96 | 1016.8 |
| 20260902092203 | 56 | 29 | 0.0 | 3.5 | 0.00 | 0.00 | 0.00 | 96 | 1016.9 |
| 20260902092103 | 56 | 28 | 0.0 | 3.5 | 0.00 | 0.00 | 0.00 | 96 | 1016.8 |
| 20260902092003 | 56 | 29 | 0.9 | 3.5 | 0.00 | 0.00 | 0.00 | 96 | 1016.8 |
| 20260902091903 | 56 | 20 | 0.9 | 3.5 | 0.00 | 0.00 | 0.00 | 96 | 1016.9 |
| 20260902091718 | 56 | 11 | 1.7 | 3.5 | 0.00 | 0.00 | 0.00 | 96 | 1016.9 |
| 20260902091703 | 56 | 8 | 1.7 | 3.5 | 0.00 | 0.00 | 0.00 | 96 | 1016.9 |
| 20260902091618 | 56 | 4 | 0.9 | 3.5 | 0.00 | 0.00 | 0.00 | 96 | 1016.9 |
| 20260902091603 | 56 | 2 | 0.9 | 3.5 | 0.00 | 0.00 | 0.00 | 96 | 1016.9 |
| 20260902091303 | 56 | 7 | 1.7 | 3.5 | 0.00 | 0.00 | 0.00 | 96 | 1017.1 |
| 20260902091203 | 56 | 11 | 1.7 | 3.5 | 0.00 | 0.00 | 0.00 | 96 | 1016.8 |
| 20260902091117 | 56 | 14 | 1.7 | 3.5 | 0.00 | 0.00 | 0.00 | 96 | 1016.8 |
| 20260902091103 | 56 | 13 | 0.9 | 3.5 | 0.00 | 0.00 | 0.00 | 96 | 1016.9 |
| 20260902091003 | 56 | 7 | 1.7 | 3.5 | 0.00 | 0.00 | 0.00 | 96 | 1017.0 |
| 20260902090817 | 56 | 357 | 1.7 | 3.5 | 0.00 | 0.00 | 0.00 | 96 | 1016.6 |
| 20260902090803 | 56 | 354 | 1.7 | 3.5 | 0.00 | 0.00 | 0.00 | 96 | 1016.6 |
| 20260902090703 | 56 | 354 | 0.9 | 3.5 | 0.00 | 0.00 | 0.00 | 96 | 1016.9 |
| 20260902090503 | 56 | 357 | 1.7 | 3.5 | 0.00 | 0.00 | 0.00 | 96 | 1016.9 |
| 20260902090417 | 56 | 7 | 1.7 | 3.5 | 0.00 | 0.00 | 0.00 | 96 | 1017.0 |
| 20260902090403 | 56 | 11 | 1.7 | 3.5 | 0.00 | 0.00 | 0.00 | 96 | 1017.0 |
| 20260902090303 | 56 | 360 | 0.9 | 3.5 | 0.00 | 0.00 | 0.00 | 96 | 1016.6 |
| 20260902090004 | 56 | 20 | 0.0 | 3.5 | 0.00 | 0.00 | 0.00 | 96 | 1016.9 |
| 20260902085903 | 56 | 18 | 1.7 | 3.5 | 0.00 | 0.00 | 0.00 | 96 | 1016.9 |
| 20260902085703 | 56 | 33 | 1.7 | 3.5 | 0.00 | 0.00 | 0.00 | 96 | 1017.0 |
| 20260902085603 | 56 | 29 | 0.9 | 3.5 | 0.00 | 0.00 | 0.00 | 96 | 1016.9 |
| 20260902085503 | 56 | 25 | 0.9 | 5.2 | 0.00 | 0.00 | 0.00 | 96 | 1016.8 |
| 20260902085306 | 56 | 10 | 0.0 | 5.2 | 0.00 | 0.00 | 0.00 | 96 | 1016.8 |
| 20260902085203 | 56 | 4 | 0.9 | 5.2 | 0.00 | 0.00 | 0.00 | 96 | 1017.0 |
| 20260902085103 | 56 | 1 | 2.6 | 5.2 | 0.00 | 0.00 | 0.00 | 96 | 1016.8 |
| 20260902085003 | 56 | 359 | 0.9 | 3.5 | 0.00 | 0.00 | 0.00 | 96 | 1016.7 |
| 20260902084903 | 56 | 357 | 2.6 | 3.5 | 0.00 | 0.00 | 0.00 | 96 | 1016.6 |
| 20260902084803 | 56 | 359 | 1.7 | 5.2 | 0.00 | 0.00 | 0.00 | 96 | 1017.0 |
| 20260902084703 | 56 | 6 | 0.0 | 5.2 | 0.00 | 0.00 | 0.00 | 96 | 1016.8 |
| 20260902084603 | 56 | 3 | 1.7 | 5.2 | 0.00 | 0.00 | 0.00 | 96 | 1016.9 |
| 20260902084503 | 56 | 359 | 1.7 | 5.2 | 0.00 | 0.00 | 0.00 | 96 | 1017.0 |
| 20260902084403 | 56 | 1 | 1.7 | 6.1 | 0.00 | 0.00 | 0.00 | 96 | 1016.9 |
| 20260902084318 | 56 | 357 | 2.6 | 6.1 | 0.00 | 0.00 | 0.00 | 96 | 1016.8 |
| 20260902084303 | 56 | 358 | 0.9 | 6.1 | 0.00 | 0.00 | 0.00 | 96 | 1016.8 |
| 20260902084203 | 56 | 357 | 1.7 | 6.1 | 0.00 | 0.00 | 0.00 | 96 | 1016.8 |
| 20260902084003 | 56 | 351 | 2.6 | 6.1 | 0.00 | 0.00 | 0.00 | 96 | 1017.0 |
| 20260902083903 | 56 | 347 | 1.7 | 6.1 | 0.00 | 0.00 | 0.00 | 96 | 1017.1 |
| 20260902083803 | 56 | 350 | 1.7 | 5.2 | 0.00 | 0.00 | 0.00 | 96 | 1016.9 |
| 20260902083703 | 56 | 349 | 1.7 | 3.5 | 0.00 | 0.00 | 0.00 | 96 | 1016.8 |
| 20260902083603 | 56 | 353 | 1.7 | 3.5 | 0.00 | 0.00 | 0.00 | 96 | 1016.8 |
| 20260902083503 | 56 | 353 | 1.7 | 3.5 | 0.00 | 0.00 | 0.00 | 96 | 1016.9 |
| 20260902083403 | 56 | 355 | 1.7 | 3.5 | 0.00 | 0.00 | 0.00 | 97 | 1017.0 |
| 20260902083303 | 56 | 350 | 2.6 | 3.5 | 0.00 | 0.00 | 0.00 | 97 | 1016.9 |
| 20260902083103 | 56 | 340 | 2.6 | 7.0 | 0.00 | 0.00 | 0.00 | 97 | 1017.0 |
| 20260902083003 | 56 | 342 | 1.7 | 7.0 | 0.00 | 0.00 | 0.00 | 97 | 1016.8 |
| 20260902082903 | 56 | 346 | 1.7 | 7.0 | 0.00 | 0.00 | 0.00 | 97 | 1016.9 |
| 20260902082803 | 56 | 345 | 2.6 | 7.0 | 0.00 | 0.00 | 0.00 | 97 | 1016.8 |
| 20260902082703 | 56 | 354 | 3.5 | 7.0 | 0.00 | 0.00 | 0.00 | 97 | 1017.0 |
| 20260902082503 | 56 | 352 | 1.7 | 6.1 | 0.00 | 0.00 | 0.00 | 97 | 1016.9 |
| 20260902082403 | 56 | 347 | 0.9 | 6.1 | 0.00 | 0.00 | 0.00 | 97 | 1016.9 |
| 20260902082308 | 56 | 346 | 3.5 | 6.1 | 0.00 | 0.00 | 0.00 | 97 | 1016.7 |
| 20260902082203 | 56 | 337 | 2.6 | 6.1 | 0.00 | 0.00 | 0.00 | 97 | 1017.1 |
| 20260902082103 | 56 | 337 | 1.7 | 6.1 | 0.00 | 0.00 | 0.00 | 97 | 1016.7 |
| 20260902082003 | 56 | 350 | 3.5 | 6.1 | 0.00 | 0.00 | 0.00 | 97 | 1016.7 |
| 20260902081903 | 56 | 357 | 1.7 | 5.2 | 0.00 | 0.00 | 0.00 | 97 | 1016.7 |
| 20260902081816 | 56 | 360 | 1.7 | 5.2 | 0.00 | 0.00 | 0.00 | 97 | 1016.9 |
| 20260902081803 | 56 | 1 | 1.7 | 5.2 | 0.00 | 0.00 | 0.00 | 97 | 1016.9 |
| 20260902081703 | 56 | 4 | 1.7 | 7.0 | 0.00 | 0.00 | 0.00 | 97 | 1016.8 |
| 20260902081618 | 56 | 5 | 1.7 | 7.0 | 0.00 | 0.00 | 0.00 | 97 | 1016.7 |
| 20260902081503 | 56 | 5 | 2.6 | 7.0 | 0.00 | 0.00 | 0.00 | 97 | 1016.5 |
| 20260902081303 | 56 | 359 | 1.7 | 7.0 | 0.00 | 0.00 | 0.00 | 97 | 1016.7 |
| 20260902081203 | 56 | 359 | 3.5 | 7.0 | 0.00 | 0.00 | 0.00 | 97 | 1017.0 |
| 20260902081110 | 56 | 357 | 1.7 | 5.2 | 0.00 | 0.00 | 0.00 | 97 | 1016.8 |
| 20260902081003 | 56 | 346 | 0.9 | 5.2 | 0.00 | 0.00 | 0.00 | 97 | 1016.6 |
| 20260902080918 | 56 | 348 | 0.9 | 5.2 | 0.00 | 0.00 | 0.00 | 97 | 1016.8 |
| 20260902080903 | 56 | 350 | 0.9 | 5.2 | 0.00 | 0.00 | 0.00 | 97 | 1016.8 |
| 20260902080803 | 56 | 354 | 1.7 | 5.2 | 0.00 | 0.00 | 0.00 | 97 | 1016.8 |
| 20260902080618 | 56 | 12 | 1.7 | 6.1 | 0.00 | 0.00 | 0.00 | 97 | 1017.0 |
| 20260902080603 | 56 | 14 | 1.7 | 6.1 | 0.00 | 0.00 | 0.00 | 97 | 1017.0 |
| 20260902080503 | 56 | 25 | 1.7 | 6.1 | 0.00 | 0.00 | 0.00 | 97 | 1016.8 |
| 20260902080303 | 56 | 28 | 3.5 | 6.1 | 0.00 | 0.00 | 0.00 | 97 | 1016.7 |
| 20260902080203 | 56 | 22 | 3.5 | 6.1 | 0.00 | 0.00 | 0.00 | 97 | 1016.6 |
| 20260902080117 | 56 | 10 | 3.5 | 6.1 | 0.00 | 0.00 | 0.00 | 97 | 1016.7 |
| 20260902080003 | 56 | 1 | 1.7 | 6.1 | 0.00 | 0.00 | 0.00 | 97 | 1016.6 |
| 20260902075803 | 56 | 355 | 1.7 | 6.1 | 0.00 | 0.00 | 0.00 | 97 | 1016.6 |
| 20260902075703 | 56 | 355 | 1.7 | 6.1 | 0.00 | 0.00 | 0.00 | 97 | 1016.6 |
| 20260902075603 | 57 | 354 | 3.5 | 6.1 | 0.00 | 0.00 | 0.00 | 97 | 1016.8 |
| 20260902075403 | 56 | 358 | 1.7 | 6.1 | 0.00 | 0.00 | 0.00 | 97 | 1016.9 |
| 20260902075317 | 56 | 356 | 1.7 | 6.1 | 0.00 | 0.00 | 0.00 | 97 | 1016.7 |
| 20260902075306 | 56 | 355 | 1.7 | 6.1 | 0.00 | 0.00 | 0.00 | 97 | 1016.7 |
| 20260902075203 | 56 | 2 | 1.7 | 6.1 | 0.00 | 0.00 | 0.00 | 97 | 1016.7 |
| 20260902075003 | 56 | 21 | 1.7 | 3.5 | 0.00 | 0.00 | 0.00 | 97 | 1016.9 |
| 20260902074903 | 56 | 7 | 1.7 | 5.2 | 0.00 | 0.00 | 0.00 | 97 | 1016.9 |
| 20260902074803 | 56 | 10 | 1.7 | 5.2 | 0.00 | 0.00 | 0.00 | 97 | 1016.8 |
| 20260902074703 | 56 | 1 | 1.7 | 5.2 | 0.00 | 0.00 | 0.00 | 97 | 1016.6 |
| 20260902074603 | 56 | 4 | 1.7 | 5.2 | 0.00 | 0.00 | 0.00 | 97 | 1016.8 |
| 20260902074503 | 56 | 5 | 0.9 | 5.2 | 0.00 | 0.00 | 0.00 | 97 | 1017.0 |
| 20260902074403 | 56 | 11 | 2.6 | 5.2 | 0.00 | 0.00 | 0.00 | 97 | 1017.0 |
| 20260902074303 | 56 | 7 | 1.7 | 3.5 | 0.00 | 0.00 | 0.00 | 97 | 1017.0 |
| 20260902074218 | 56 | 11 | 0.9 | 3.5 | 0.00 | 0.00 | 0.00 | 97 | 1016.9 |
| 20260902074203 | 56 | 12 | 0.9 | 3.5 | 0.00 | 0.00 | 0.00 | 97 | 1016.9 |
| 20260902074103 | 56 | 9 | 1.7 | 3.5 | 0.00 | 0.00 | 0.00 | 97 | 1016.9 |
| 20260902074017 | 56 | 8 | 1.7 | 3.5 | 0.00 | 0.00 | 0.00 | 97 | 1017.1 |
| 20260902073903 | 56 | 3 | 1.7 | 3.5 | 0.00 | 0.00 | 0.00 | 97 | 1016.8 |
| 20260902073703 | 56 | 9 | 1.7 | 3.5 | 0.00 | 0.00 | 0.00 | 97 | 1016.9 |
| 20260902073603 | 56 | 6 | 0.9 | 3.5 | 0.00 | 0.00 | 0.00 | 97 | 1016.8 |
| 20260902073503 | 56 | 3 | 2.6 | 3.5 | 0.00 | 0.00 | 0.00 | 97 | 1017.0 |
| 20260902073303 | 56 | 358 | 1.7 | 3.5 | 0.00 | 0.00 | 0.00 | 97 | 1017.1 |
| 20260902073203 | 56 | 351 | 1.7 | 3.5 | 0.00 | 0.00 | 0.00 | 97 | 1017.0 |
| 20260902073103 | 56 | 352 | 0.9 | 5.2 | 0.00 | 0.00 | 0.00 | 97 | 1016.9 |
| 20260902073003 | 56 | 349 | 0.9 | 5.2 | 0.00 | 0.00 | 0.00 | 97 | 1017.2 |
| 20260902072903 | 56 | 348 | 1.7 | 5.2 | 0.00 | 0.00 | 0.00 | 97 | 1017.1 |
| 20260902072803 | 56 | 345 | 1.7 | 5.2 | 0.00 | 0.00 | 0.00 | 97 | 1017.2 |
| 20260902072717 | 57 | 347 | 1.7 | 5.2 | 0.00 | 0.00 | 0.00 | 97 | 1017.1 |
| 20260902072603 | 57 | 353 | 3.5 | 5.2 | 0.00 | 0.00 | 0.00 | 97 | 1017.1 |
| 20260902072403 | 57 | 356 | 1.7 | 5.2 | 0.00 | 0.00 | 0.00 | 97 | 1017.2 |
| 20260902072308 | 57 | 1 | 2.6 | 5.2 | 0.00 | 0.00 | 0.00 | 97 | 1017.2 |
| 20260902072218 | 57 | 3 | 1.7 | 5.2 | 0.00 | 0.00 | 0.00 | 97 | 1017.0 |
| 20260902072203 | 57 | 2 | 1.7 | 5.2 | 0.00 | 0.00 | 0.00 | 97 | 1017.0 |
| 20260902072103 | 57 | 356 | 3.5 | 5.2 | 0.00 | 0.00 | 0.00 | 97 | 1017.2 |
| 20260902071903 | 57 | 359 | 1.7 | 3.5 | 0.00 | 0.00 | 0.00 | 97 | 1017.2 |
| 20260902071803 | 57 | 358 | 1.7 | 3.5 | 0.00 | 0.00 | 0.00 | 97 | 1017.1 |
| 20260902071703 | 57 | 353 | 1.7 | 3.5 | 0.00 | 0.00 | 0.00 | 97 | 1017.2 |
| 20260902071603 | 57 | 350 | 0.9 | 5.2 | 0.00 | 0.00 | 0.00 | 97 | 1017.3 |
| 20260902071503 | 57 | 1 | 1.7 | 5.2 | 0.00 | 0.00 | 0.00 | 96 | 1016.9 |
| 20260902071403 | 57 | 1 | 1.7 | 5.2 | 0.00 | 0.00 | 0.00 | 96 | 1017.1 |
| 20260902071303 | 57 | 3 | 0.9 | 5.2 | 0.00 | 0.00 | 0.00 | 96 | 1017.1 |
| 20260902071220 | 57 | 359 | 0.0 | 5.2 | 0.00 | 0.00 | 0.00 | 96 | 1017.3 |
| 20260902071203 | 57 | 358 | 0.0 | 5.2 | 0.00 | 0.00 | 0.00 | 96 | 1017.3 |
| 20260902071103 | 57 | 359 | 2.6 | 3.5 | 0.00 | 0.00 | 0.00 | 96 | 1017.3 |
| 20260902070903 | 57 | 354 | 1.7 | 3.5 | 0.00 | 0.00 | 0.00 | 96 | 1017.3 |
| 20260902070803 | 57 | 353 | 0.9 | 3.5 | 0.00 | 0.00 | 0.00 | 96 | 1017.3 |
| 20260902070703 | 57 | 2 | 1.7 | 3.5 | 0.00 | 0.00 | 0.00 | 96 | 1017.1 |
| 20260902070603 | 57 | 8 | 1.7 | 3.5 | 0.00 | 0.00 | 0.00 | 96 | 1017.3 |
| 20260902070503 | 57 | 4 | 1.7 | 3.5 | 0.00 | 0.00 | 0.00 | 96 | 1017.4 |
| 20260902070403 | 57 | 3 | 1.7 | 3.5 | 0.00 | 0.00 | 0.00 | 96 | 1017.4 |
| 20260902070303 | 57 | 6 | 0.9 | 3.5 | 0.00 | 0.00 | 0.00 | 96 | 1017.4 |
| 20260902070203 | 57 | 354 | 0.9 | 3.5 | 0.00 | 0.00 | 0.00 | 96 | 1017.4 |
| 20260902065903 | 57 | 347 | 1.7 | 5.2 | 0.00 | 0.00 | 0.00 | 96 | 1017.5 |
| 20260902065803 | 57 | 340 | 1.7 | 5.2 | 0.00 | 0.00 | 0.00 | 96 | 1017.5 |
| 20260902065703 | 57 | 345 | 0.9 | 5.2 | 0.00 | 0.00 | 0.00 | 96 | 1017.5 |
| 20260902065603 | 57 | 354 | 0.0 | 5.2 | 0.00 | 0.00 | 0.00 | 96 | 1017.5 |
| 20260902065503 | 57 | 357 | 1.7 | 5.2 | 0.00 | 0.00 | 0.00 | 96 | 1017.4 |
| 20260902065403 | 57 | 3 | 0.0 | 3.5 | 0.00 | 0.00 | 0.00 | 96 | 1017.5 |
| 20260902065306 | 57 | 7 | 0.0 | 3.5 | 0.00 | 0.00 | 0.00 | 96 | 1017.5 |
| 20260902065203 | 57 | 7 | 0.0 | 3.5 | 0.00 | 0.00 | 0.00 | 96 | 1017.5 |
| 20260902065103 | 57 | 353 | 0.9 | 3.5 | 0.00 | 0.00 | 0.00 | 96 | 1017.5 |
| 20260902065003 | 57 | 354 | 0.0 | 3.5 | 0.00 | 0.00 | 0.00 | 96 | 1017.5 |
| 20260902064917 | 57 | 357 | 0.9 | 3.5 | 0.00 | 0.00 | 0.00 | 96 | 1017.7 |
| 20260902064903 | 57 | 359 | 0.9 | 3.5 | 0.00 | 0.00 | 0.00 | 96 | 1017.7 |
| 20260902064803 | 57 | 356 | 1.7 | 3.5 | 0.00 | 0.00 | 0.00 | 96 | 1017.5 |
| 20260902064603 | 57 | 7 | 1.7 | 1.7 | 0.00 | 0.00 | 0.00 | 96 | 1017.5 |
| 20260902064503 | 57 | 21 | 1.7 | 1.7 | 0.00 | 0.00 | 0.00 | 96 | 1017.6 |
| 20260902064403 | 57 | 29 | 0.9 | 1.7 | 0.00 | 0.00 | 0.00 | 96 | 1017.6 |
| 20260902064303 | 57 | 27 | 0.9 | 3.5 | 0.00 | 0.00 | 0.00 | 96 | 1017.5 |
| 20260902064203 | 57 | 33 | 0.9 | 3.5 | 0.00 | 0.00 | 0.00 | 96 | 1017.5 |
| 20260902064103 | 57 | 28 | 0.9 | 3.5 | 0.00 | 0.00 | 0.00 | 96 | 1017.5 |
| 20260902064003 | 57 | 28 | 0.0 | 3.5 | 0.00 | 0.00 | 0.00 | 96 | 1017.5 |
| 20260902063903 | 57 | 30 | 0.9 | 3.5 | 0.00 | 0.00 | 0.00 | 96 | 1017.7 |
| 20260902063803 | 57 | 35 | 0.9 | 3.5 | 0.00 | 0.00 | 0.00 | 96 | 1017.7 |
| 20260902063703 | 57 | 29 | 0.9 | 3.5 | 0.00 | 0.00 | 0.00 | 96 | 1017.6 |
| 20260902063603 | 57 | 29 | 1.7 | 3.5 | 0.00 | 0.00 | 0.00 | 96 | 1017.7 |
| 20260902063503 | 57 | 33 | 1.7 | 3.5 | 0.00 | 0.00 | 0.00 | 96 | 1017.6 |
| 20260902063403 | 57 | 32 | 0.0 | 3.5 | 0.00 | 0.00 | 0.00 | 96 | 1017.6 |
| 20260902063303 | 57 | 33 | 0.9 | 3.5 | 0.00 | 0.00 | 0.00 | 96 | 1017.4 |
| 20260902063203 | 57 | 37 | 0.0 | 3.5 | 0.00 | 0.00 | 0.00 | 96 | 1017.7 |
| 20260902063103 | 57 | 51 | 1.7 | 3.5 | 0.00 | 0.00 | 0.00 | 96 | 1017.4 |
| 20260902063003 | 57 | 51 | 0.9 | 3.5 | 0.00 | 0.00 | 0.00 | 96 | 1017.7 |
| 20260902062903 | 57 | 53 | 0.0 | 3.5 | 0.00 | 0.00 | 0.00 | 96 | 1017.5 |
| 20260902062803 | 57 | 58 | 0.9 | 3.5 | 0.00 | 0.00 | 0.00 | 96 | 1017.7 |
| 20260902062703 | 57 | 64 | 1.7 | 3.5 | 0.00 | 0.00 | 0.00 | 96 | 1017.5 |
| 20260902062603 | 57 | 56 | 0.0 | 3.5 | 0.00 | 0.00 | 0.00 | 96 | 1017.5 |
| 20260902062503 | 57 | 49 | 0.0 | 3.5 | 0.00 | 0.00 | 0.00 | 96 | 1017.4 |
| 20260902062403 | 57 | 50 | 0.0 | 3.5 | 0.00 | 0.00 | 0.00 | 96 | 1017.5 |
| 20260902062305 | 57 | 51 | 0.9 | 3.5 | 0.00 | 0.00 | 0.00 | 96 | 1017.6 |
| 20260902062203 | 57 | 44 | 0.9 | 3.5 | 0.00 | 0.00 | 0.00 | 96 | 1017.6 |
| 20260902062118 | 57 | 41 | 1.7 | 3.5 | 0.00 | 0.00 | 0.00 | 96 | 1017.7 |
| 20260902062103 | 57 | 43 | 1.7 | 3.5 | 0.00 | 0.00 | 0.00 | 96 | 1017.7 |
| 20260902062003 | 57 | 35 | 0.9 | 3.5 | 0.00 | 0.00 | 0.00 | 96 | 1017.5 |
| 20260902061803 | 57 | 15 | 0.0 | 3.5 | 0.00 | 0.00 | 0.00 | 96 | 1017.6 |
| 20260902061718 | 57 | 17 | 0.9 | 3.5 | 0.00 | 0.00 | 0.00 | 96 | 1017.8 |
| 20260902061703 | 57 | 18 | 0.9 | 3.5 | 0.00 | 0.00 | 0.00 | 96 | 1017.8 |
| 20260902061532 | 57 | 24 | 2.6 | 3.5 | 0.00 | 0.00 | 0.00 | 96 | 1017.8 |
| 20260902061432 | 57 | 37 | 1.7 | 3.5 | 0.00 | 0.00 | 0.00 | 96 | 1017.8 |
| 20260902061403 | 57 | 42 | 1.7 | 3.5 | 0.00 | 0.00 | 0.00 | 96 | 1017.6 |
| 20260902061203 | 57 | 40 | 0.9 | 3.5 | 0.00 | 0.00 | 0.00 | 96 | 1017.6 |
| 20260902060907 | 57 | 33 | 1.7 | 6.1 | 0.00 | 0.00 | 0.00 | 96 | 1017.8 |
| 20260902060803 | 57 | 39 | 0.9 | 6.1 | 0.00 | 0.00 | 0.00 | 96 | 1017.5 |
| 20260902060703 | 57 | 35 | 0.9 | 6.1 | 0.00 | 0.00 | 0.00 | 96 | 1017.6 |
| 20260902060603 | 57 | 30 | 1.7 | 6.1 | 0.00 | 0.00 | 0.00 | 96 | 1017.9 |
| 20260902060503 | 57 | 34 | 2.6 | 6.1 | 0.00 | 0.00 | 0.00 | 96 | 1017.6 |
| 20260902060403 | 57 | 34 | 1.7 | 3.5 | 0.00 | 0.00 | 0.00 | 96 | 1017.8 |
| 20260902060317 | 57 | 34 | 1.7 | 3.5 | 0.00 | 0.00 | 0.00 | 96 | 1017.7 |
| 20260902060303 | 57 | 35 | 1.7 | 3.5 | 0.00 | 0.00 | 0.00 | 96 | 1017.8 |
| 20260902060203 | 57 | 49 | 1.7 | 3.5 | 0.00 | 0.00 | 0.00 | 96 | 1017.9 |
| 20260902060003 | 57 | 52 | 1.7 | 3.5 | 0.00 | 0.00 | 0.00 | 96 | 1017.8 |
| 20260902055903 | 57 | 46 | 1.7 | 3.5 | 0.00 | 0.00 | 0.00 | 96 | 1018.1 |
| 20260902055703 | 57 | 38 | 1.7 | 3.5 | 0.00 | 0.00 | 0.00 | 96 | 1018.0 |
| 20260902055603 | 57 | 49 | 1.7 | 3.5 | 0.00 | 0.00 | 0.00 | 96 | 1017.9 |
| 20260902055503 | 57 | 50 | 0.9 | 6.1 | 0.00 | 0.00 | 0.00 | 96 | 1017.6 |
| 20260902055403 | 57 | 43 | 0.0 | 6.1 | 0.00 | 0.00 | 0.00 | 96 | 1017.7 |
| 20260902055306 | 57 | 33 | 0.9 | 6.1 | 0.00 | 0.00 | 0.00 | 96 | 1017.9 |
| 20260902055203 | 57 | 24 | 0.9 | 6.1 | 0.00 | 0.00 | 0.00 | 96 | 1017.7 |
| 20260902055103 | 57 | 15 | 3.5 | 6.1 | 0.00 | 0.00 | 0.00 | 96 | 1017.6 |
| 20260902055003 | 57 | 6 | 1.7 | 5.2 | 0.00 | 0.00 | 0.00 | 96 | 1018.0 |
| 20260902054903 | 57 | 6 | 1.7 | 5.2 | 0.00 | 0.00 | 0.00 | 96 | 1018.0 |
| 20260902054803 | 57 | 10 | 0.9 | 5.2 | 0.00 | 0.00 | 0.00 | 96 | 1018.0 |
| 20260902054703 | 57 | 14 | 1.7 | 3.5 | 0.00 | 0.00 | 0.00 | 96 | 1017.7 |
| 20260902054603 | 57 | 8 | 0.9 | 5.2 | 0.00 | 0.00 | 0.00 | 96 | 1017.9 |
| 20260902054503 | 57 | 12 | 1.7 | 5.2 | 0.00 | 0.00 | 0.00 | 96 | 1017.7 |
| 20260902054403 | 57 | 22 | 2.6 | 5.2 | 0.00 | 0.00 | 0.00 | 96 | 1017.8 |
| 20260902054303 | 57 | 30 | 0.9 | 5.2 | 0.00 | 0.00 | 0.00 | 96 | 1018.0 |
| 20260902054203 | 57 | 40 | 1.7 | 5.2 | 0.00 | 0.00 | 0.00 | 96 | 1017.9 |
| 20260902054103 | 57 | 44 | 1.7 | 5.2 | 0.00 | 0.00 | 0.00 | 96 | 1018.1 |
| 20260902054003 | 57 | 45 | 1.7 | 5.2 | 0.00 | 0.00 | 0.00 | 96 | 1017.8 |
| 20260902053903 | 57 | 34 | 2.6 | 5.2 | 0.00 | 0.00 | 0.00 | 96 | 1018.0 |
| 20260902053817 | 57 | 25 | 1.7 | 5.2 | 0.00 | 0.00 | 0.00 | 96 | 1017.8 |
| 20260902053803 | 57 | 22 | 1.7 | 5.2 | 0.00 | 0.00 | 0.00 | 96 | 1017.8 |
| 20260902053703 | 57 | 6 | 1.7 | 3.5 | 0.00 | 0.00 | 0.00 | 96 | 1017.9 |
| 20260902053503 | 57 | 18 | 0.9 | 7.0 | 0.00 | 0.00 | 0.00 | 96 | 1017.7 |
| 20260902053403 | 57 | 35 | 0.9 | 7.0 | 0.00 | 0.00 | 0.00 | 96 | 1017.9 |
| 20260902053303 | 57 | 36 | 0.9 | 7.8 | 0.00 | 0.00 | 0.00 | 96 | 1018.0 |
| 20260902053203 | 57 | 39 | 0.9 | 7.8 | 0.00 | 0.00 | 0.00 | 96 | 1017.5 |
| 20260902053103 | 57 | 46 | 1.7 | 7.8 | 0.00 | 0.00 | 0.00 | 96 | 1018.0 |
| 20260902053003 | 57 | 46 | 2.6 | 7.8 | 0.00 | 0.00 | 0.00 | 96 | 1017.9 |
| 20260902052917 | 57 | 38 | 3.5 | 7.8 | 0.00 | 0.00 | 0.00 | 96 | 1017.9 |
| 20260902052903 | 57 | 32 | 3.5 | 7.8 | 0.00 | 0.00 | 0.00 | 96 | 1017.9 |
| 20260902052803 | 57 | 43 | 1.7 | 7.8 | 0.00 | 0.00 | 0.00 | 96 | 1018.0 |
| 20260902052617 | 57 | 49 | 1.7 | 6.1 | 0.00 | 0.00 | 0.00 | 96 | 1017.9 |
| 20260902052603 | 57 | 52 | 1.7 | 6.1 | 0.00 | 0.00 | 0.00 | 96 | 1017.9 |
| 20260902052517 | 57 | 55 | 1.7 | 6.1 | 0.00 | 0.00 | 0.00 | 96 | 1018.0 |
| 20260902052503 | 57 | 53 | 1.7 | 6.1 | 0.00 | 0.00 | 0.00 | 96 | 1018.0 |
| 20260902052217 | 57 | 48 | 1.7 | 7.0 | 0.00 | 0.00 | 0.00 | 96 | 1018.1 |
| 20260902052203 | 57 | 47 | 1.7 | 7.0 | 0.00 | 0.00 | 0.00 | 96 | 1018.1 |
| 20260902052103 | 57 | 40 | 1.7 | 7.0 | 0.00 | 0.00 | 0.00 | 96 | 1018.1 |
| 20260902051917 | 57 | 35 | 2.6 | 7.0 | 0.00 | 0.00 | 0.00 | 96 | 1018.0 |
| 20260902051903 | 57 | 32 | 3.5 | 7.0 | 0.00 | 0.00 | 0.00 | 96 | 1018.2 |
| 20260902051803 | 57 | 32 | 2.6 | 7.0 | 0.00 | 0.00 | 0.00 | 96 | 1018.1 |
| 20260902051603 | 57 | 30 | 1.7 | 5.2 | 0.00 | 0.00 | 0.00 | 96 | 1018.4 |
| 20260902051503 | 57 | 22 | 0.0 | 3.5 | 0.00 | 0.00 | 0.00 | 96 | 1018.3 |
| 20260902051403 | 57 | 17 | 0.0 | 3.5 | 0.00 | 0.00 | 0.00 | 96 | 1018.2 |
| 20260902051303 | 57 | 29 | 0.9 | 3.5 | 0.00 | 0.00 | 0.00 | 96 | 1018.4 |
| 20260902051203 | 57 | 25 | 0.9 | 3.5 | 0.00 | 0.00 | 0.00 | 96 | 1018.2 |
| 20260902051103 | 58 | 31 | 1.7 | 3.5 | 0.00 | 0.00 | 0.00 | 96 | 1018.2 |
| 20260902051003 | 58 | 26 | 1.7 | 3.5 | 0.00 | 0.00 | 0.00 | 96 | 1018.4 |
| 20260902050903 | 58 | 16 | 0.9 | 3.5 | 0.00 | 0.00 | 0.00 | 96 | 1018.2 |
| 20260902050803 | 58 | 12 | 1.7 | 3.5 | 0.00 | 0.00 | 0.00 | 96 | 1018.3 |
| 20260902050703 | 58 | 5 | 1.7 | 5.2 | 0.00 | 0.00 | 0.00 | 96 | 1018.4 |
| 20260902050603 | 58 | 356 | 0.9 | 5.2 | 0.00 | 0.00 | 0.00 | 96 | 1018.4 |
| 20260902050504 | 58 | 6 | 0.9 | 5.2 | 0.00 | 0.00 | 0.00 | 96 | 1018.5 |
| 20260902050418 | 58 | 12 | 1.7 | 5.2 | 0.00 | 0.00 | 0.00 | 96 | 1018.3 |
| 20260902050403 | 58 | 15 | 1.7 | 5.2 | 0.00 | 0.00 | 0.00 | 96 | 1018.3 |
| 20260902050303 | 58 | 12 | 1.7 | 5.2 | 0.00 | 0.00 | 0.00 | 96 | 1018.5 |
| 20260902050006 | 58 | 17 | 1.7 | 5.2 | 0.00 | 0.00 | 0.00 | 96 | 1018.4 |
| 20260902045916 | 58 | 17 | 1.7 | 5.2 | 0.00 | 0.00 | 0.00 | 96 | 1018.4 |
| 20260902045903 | 58 | 16 | 2.6 | 5.2 | 0.00 | 0.00 | 0.00 | 96 | 1018.5 |
| 20260902045803 | 58 | 26 | 0.9 | 3.5 | 0.00 | 0.00 | 0.00 | 96 | 1018.3 |
| 20260902045718 | 58 | 28 | 2.6 | 3.5 | 0.00 | 0.00 | 0.00 | 96 | 1018.4 |
| 20260902045603 | 58 | 28 | 0.9 | 3.5 | 0.00 | 0.00 | 0.00 | 96 | 1018.7 |
| 20260902045403 | 58 | 41 | 0.0 | 3.5 | 0.00 | 0.00 | 0.00 | 96 | 1018.5 |
| 20260902045306 | 58 | 52 | 1.7 | 3.5 | 0.00 | 0.00 | 0.00 | 96 | 1018.6 |
| 20260902045203 | 58 | 50 | 0.9 | 3.5 | 0.00 | 0.00 | 0.00 | 96 | 1018.4 |
| 20260902045103 | 58 | 55 | 0.0 | 3.5 | 0.00 | 0.00 | 0.00 | 95 | 1018.5 |
| 20260902045018 | 58 | 52 | 0.9 | 3.5 | 0.00 | 0.00 | 0.00 | 95 | 1018.6 |
| 20260902044903 | 58 | 55 | 0.9 | 3.5 | 0.00 | 0.00 | 0.00 | 95 | 1018.7 |
| 20260902044817 | 58 | 51 | 1.7 | 3.5 | 0.00 | 0.00 | 0.00 | 95 | 1018.5 |
| 20260902044703 | 58 | 48 | 1.7 | 3.5 | 0.00 | 0.00 | 0.00 | 95 | 1018.5 |
| 20260902044503 | 58 | 45 | 0.0 | 3.5 | 0.00 | 0.00 | 0.00 | 95 | 1018.6 |
| 20260902044403 | 58 | 36 | 0.9 | 3.5 | 0.00 | 0.00 | 0.00 | 95 | 1018.8 |
| 20260902044318 | 58 | 34 | 0.0 | 3.5 | 0.00 | 0.00 | 0.00 | 95 | 1018.6 |
| 20260902044303 | 58 | 32 | 0.0 | 3.5 | 0.00 | 0.00 | 0.00 | 95 | 1018.5 |
| 20260902044203 | 58 | 28 | 0.9 | 3.5 | 0.00 | 0.00 | 0.00 | 95 | 1018.5 |
| 20260902044117 | 58 | 32 | 1.7 | 3.5 | 0.00 | 0.00 | 0.00 | 95 | 1018.6 |
| 20260902044003 | 58 | 26 | 1.7 | 3.5 | 0.00 | 0.00 | 0.00 | 95 | 1018.4 |
| 20260902043803 | 58 | 53 | 1.7 | 3.5 | 0.00 | 0.00 | 0.00 | 95 | 1018.5 |
| 20260902043703 | 58 | 73 | 0.0 | 3.5 | 0.00 | 0.00 | 0.00 | 95 | 1018.5 |
| 20260902043603 | 58 | 77 | 0.9 | 3.5 | 0.00 | 0.00 | 0.00 | 95 | 1018.5 |
| 20260902043503 | 58 | 84 | 0.0 | 3.5 | 0.00 | 0.00 | 0.00 | 95 | 1018.7 |
| 20260902043418 | 58 | 78 | 0.0 | 3.5 | 0.00 | 0.00 | 0.00 | 95 | 1018.8 |
| 20260902043403 | 58 | 74 | 0.0 | 3.5 | 0.00 | 0.00 | 0.00 | 95 | 1018.8 |
| 20260902043303 | 58 | 66 | 1.7 | 3.5 | 0.00 | 0.00 | 0.00 | 95 | 1018.8 |
| 20260902043103 | 58 | 53 | 0.9 | 3.5 | 0.00 | 0.00 | 0.00 | 95 | 1018.6 |
| 20260902043003 | 58 | 45 | 1.7 | 3.5 | 0.00 | 0.00 | 0.00 | 95 | 1018.8 |
| 20260902042903 | 58 | 52 | 1.7 | 3.5 | 0.00 | 0.00 | 0.00 | 95 | 1018.7 |
| 20260902042803 | 58 | 47 | 1.7 | 3.5 | 0.00 | 0.00 | 0.00 | 95 | 1018.9 |
| 20260902042703 | 58 | 27 | 0.0 | 5.2 | 0.00 | 0.00 | 0.00 | 95 | 1018.9 |
| 20260902042603 | 58 | 24 | 0.9 | 5.2 | 0.00 | 0.00 | 0.00 | 95 | 1018.8 |
| 20260902042503 | 58 | 27 | 0.9 | 5.2 | 0.00 | 0.00 | 0.00 | 95 | 1018.7 |
| 20260902042403 | 58 | 24 | 0.9 | 5.2 | 0.00 | 0.00 | 0.00 | 95 | 1018.7 |
| 20260902042308 | 58 | 24 | 0.9 | 5.2 | 0.00 | 0.00 | 0.00 | 95 | 1018.8 |
| 20260902042203 | 58 | 43 | 0.0 | 3.5 | 0.00 | 0.00 | 0.00 | 95 | 1018.7 |
| 20260902042103 | 58 | 51 | 0.0 | 3.5 | 0.00 | 0.00 | 0.00 | 95 | 1018.8 |
| 20260902042003 | 58 | 50 | 0.9 | 3.5 | 0.00 | 0.00 | 0.00 | 95 | 1018.6 |
| 20260902041903 | 58 | 53 | 0.9 | 3.5 | 0.00 | 0.00 | 0.00 | 95 | 1018.9 |
| 20260902041803 | 58 | 58 | 1.7 | 3.5 | 0.00 | 0.00 | 0.00 | 95 | 1018.8 |
| 20260902041703 | 58 | 59 | 2.6 | 3.5 | 0.00 | 0.00 | 0.00 | 95 | 1018.8 |
| 20260902041618 | 58 | 58 | 1.7 | 3.5 | 0.00 | 0.00 | 0.00 | 95 | 1018.8 |
| 20260902041603 | 58 | 57 | 1.7 | 3.5 | 0.00 | 0.00 | 0.00 | 95 | 1018.8 |
| 20260902041517 | 58 | 50 | 0.9 | 1.7 | 0.00 | 0.00 | 0.00 | 95 | 1018.7 |
| 20260902041505 | 58 | 51 | 0.9 | 1.7 | 0.00 | 0.00 | 0.00 | 95 | 1018.7 |
| 20260902041203 | 59 | 73 | 0.0 | 3.5 | 0.00 | 0.00 | 0.00 | 95 | 1018.9 |
| 20260902041103 | 58 | 73 | 0.9 | 3.5 | 0.00 | 0.00 | 0.00 | 95 | 1019.0 |
| 20260902041018 | 59 | 77 | 0.9 | 3.5 | 0.00 | 0.00 | 0.00 | 95 | 1018.9 |
| 20260902041003 | 59 | 74 | 0.9 | 3.5 | 0.00 | 0.00 | 0.00 | 95 | 1018.9 |
| 20260902040916 | 59 | 61 | 0.9 | 3.5 | 0.00 | 0.00 | 0.00 | 95 | 1018.6 |
| 20260902040903 | 59 | 55 | 0.9 | 3.5 | 0.00 | 0.00 | 0.00 | 95 | 1018.6 |
| 20260902040718 | 58 | 37 | 0.0 | 3.5 | 0.00 | 0.00 | 0.00 | 95 | 1018.8 |
| 20260902040603 | 59 | 33 | 0.0 | 3.5 | 0.00 | 0.00 | 0.00 | 95 | 1018.9 |
| 20260902040403 | 59 | 49 | 1.7 | 3.5 | 0.00 | 0.00 | 0.00 | 95 | 1019.0 |
| 20260902040303 | 59 | 61 | 0.0 | 3.5 | 0.00 | 0.00 | 0.00 | 95 | 1018.8 |
| 20260902040218 | 59 | 65 | 0.0 | 3.5 | 0.00 | 0.00 | 0.00 | 95 | 1018.9 |
| 20260902040203 | 59 | 66 | 0.0 | 3.5 | 0.00 | 0.00 | 0.00 | 95 | 1018.9 |
| 20260902040117 | 59 | 68 | 0.9 | 3.5 | 0.00 | 0.00 | 0.00 | 95 | 1018.8 |
| 20260902040103 | 59 | 70 | 0.9 | 3.5 | 0.00 | 0.00 | 0.00 | 95 | 1018.8 |
| 20260902035803 | 59 | 73 | 0.0 | 3.5 | 0.00 | 0.00 | 0.00 | 95 | 1018.7 |
| 20260902035703 | 59 | 56 | 0.9 | 5.2 | 0.00 | 0.00 | 0.00 | 95 | 1018.8 |
| 20260902035603 | 59 | 54 | 0.0 | 5.2 | 0.00 | 0.00 | 0.00 | 95 | 1018.9 |
| 20260902035503 | 59 | 56 | 0.0 | 5.2 | 0.00 | 0.00 | 0.00 | 95 | 1018.9 |
| 20260902035403 | 59 | 59 | 0.0 | 5.2 | 0.00 | 0.00 | 0.00 | 95 | 1018.8 |
| 20260902035305 | 59 | 56 | 0.9 | 5.2 | 0.00 | 0.00 | 0.00 | 95 | 1018.9 |
| 20260902035203 | 59 | 63 | 1.7 | 5.2 | 0.00 | 0.00 | 0.00 | 95 | 1018.6 |
| 20260902035103 | 59 | 67 | 0.0 | 3.5 | 0.00 | 0.00 | 0.00 | 95 | 1019.0 |
| 20260902035003 | 59 | 66 | 0.0 | 3.5 | 0.00 | 0.00 | 0.00 | 95 | 1019.1 |
| 20260902034903 | 59 | 65 | 0.9 | 3.5 | 0.00 | 0.00 | 0.00 | 95 | 1018.9 |
| 20260902034703 | 59 | 67 | 1.7 | 3.5 | 0.00 | 0.00 | 0.00 | 95 | 1018.9 |
| 20260902034603 | 59 | 63 | 0.0 | 1.7 | 0.00 | 0.00 | 0.00 | 95 | 1019.0 |
| 20260902034503 | 59 | 54 | 0.0 | 1.7 | 0.00 | 0.00 | 0.00 | 95 | 1019.0 |
| 20260902034403 | 59 | 51 | 0.0 | 1.7 | 0.00 | 0.00 | 0.00 | 94 | 1019.1 |
| 20260902034303 | 59 | 51 | 0.0 | 1.7 | 0.00 | 0.00 | 0.00 | 94 | 1018.9 |
| 20260902034103 | 59 | 65 | 0.9 | 1.7 | 0.00 | 0.00 | 0.00 | 94 | 1019.0 |
| 20260902034003 | 59 | 78 | 0.9 | 1.7 | 0.00 | 0.00 | 0.00 | 94 | 1019.0 |
| 20260902033903 | 59 | 84 | 0.0 | 1.7 | 0.00 | 0.00 | 0.00 | 94 | 1019.0 |
| 20260902033803 | 59 | 82 | 0.0 | 1.7 | 0.00 | 0.00 | 0.00 | 94 | 1018.8 |
| 20260902033703 | 59 | 81 | 0.9 | 1.7 | 0.00 | 0.00 | 0.00 | 94 | 1019.0 |
| 20260902033603 | 59 | 78 | 0.9 | 1.7 | 0.00 | 0.00 | 0.00 | 94 | 1018.7 |
| 20260902033503 | 59 | 74 | 0.0 | 1.7 | 0.00 | 0.00 | 0.00 | 94 | 1019.0 |
| 20260902033403 | 59 | 72 | 0.0 | 1.7 | 0.00 | 0.00 | 0.00 | 94 | 1018.9 |
| 20260902033318 | 59 | 73 | 0.9 | 1.7 | 0.00 | 0.00 | 0.00 | 94 | 1018.7 |
| 20260902033303 | 59 | 74 | 0.9 | 1.7 | 0.00 | 0.00 | 0.00 | 94 | 1018.7 |
| 20260902033203 | 59 | 76 | 0.0 | 1.7 | 0.00 | 0.00 | 0.00 | 94 | 1019.0 |
| 20260902033003 | 59 | 82 | 0.0 | 1.7 | 0.00 | 0.00 | 0.00 | 94 | 1019.0 |
| 20260902032903 | 59 | 70 | 0.0 | 1.7 | 0.00 | 0.00 | 0.00 | 94 | 1019.0 |
| 20260902032803 | 59 | 71 | 0.0 | 1.7 | 0.00 | 0.00 | 0.00 | 94 | 1019.0 |
| 20260902032717 | 59 | 69 | 0.0 | 1.7 | 0.00 | 0.00 | 0.00 | 94 | 1019.2 |
| 20260902032703 | 59 | 71 | 0.9 | 1.7 | 0.00 | 0.00 | 0.00 | 94 | 1019.0 |
| 20260902032603 | 59 | 72 | 0.0 | 3.5 | 0.00 | 0.00 | 0.00 | 94 | 1019.2 |
| 20260902032403 | 59 | 80 | 0.9 | 3.5 | 0.00 | 0.00 | 0.00 | 94 | 1019.2 |
| 20260902032305 | 59 | 81 | 0.9 | 3.5 | 0.00 | 0.00 | 0.00 | 94 | 1019.3 |
| 20260902032203 | 59 | 85 | 0.9 | 3.5 | 0.00 | 0.00 | 0.00 | 94 | 1019.0 |
| 20260902032103 | 59 | 91 | 0.9 | 3.5 | 0.00 | 0.00 | 0.00 | 94 | 1019.1 |
| 20260902031918 | 59 | 95 | 0.9 | 1.7 | 0.00 | 0.00 | 0.00 | 94 | 1019.2 |
| 20260902031909 | 59 | 92 | 0.0 | 1.7 | 0.00 | 0.00 | 0.00 | 94 | 1019.1 |
| 20260902031803 | 59 | 85 | 0.0 | 1.7 | 0.00 | 0.00 | 0.00 | 94 | 1019.0 |
| 20260902031603 | 59 | 84 | 0.0 | 1.7 | 0.00 | 0.00 | 0.00 | 94 | 1019.2 |
| 20260902031503 | 59 | 78 | 0.0 | 1.7 | 0.00 | 0.00 | 0.00 | 94 | 1019.2 |
| 20260902031417 | 59 | 78 | 0.0 | 1.7 | 0.00 | 0.00 | 0.00 | 94 | 1019.1 |
| 20260902031403 | 59 | 80 | 0.0 | 1.7 | 0.00 | 0.00 | 0.00 | 94 | 1019.1 |
| 20260902031303 | 59 | 81 | 0.9 | 1.7 | 0.00 | 0.00 | 0.00 | 94 | 1019.2 |
| 20260902031218 | 59 | 79 | 0.9 | 1.7 | 0.00 | 0.00 | 0.00 | 94 | 1019.0 |
| 20260902031103 | 59 | 76 | 0.9 | 1.7 | 0.00 | 0.00 | 0.00 | 94 | 1019.0 |
| 20260902031017 | 59 | 81 | 0.9 | 1.7 | 0.00 | 0.00 | 0.00 | 94 | 1019.2 |
| 20260902030903 | 59 | 83 | 0.0 | 3.5 | 0.00 | 0.00 | 0.00 | 94 | 1019.0 |
| 20260902030703 | 59 | 90 | 0.9 | 3.5 | 0.00 | 0.00 | 0.00 | 94 | 1019.1 |
| 20260902030603 | 59 | 90 | 0.9 | 3.5 | 0.00 | 0.00 | 0.00 | 94 | 1019.3 |
| 20260902030503 | 59 | 86 | 0.0 | 3.5 | 0.00 | 0.00 | 0.00 | 94 | 1019.0 |
| 20260902030403 | 59 | 82 | 0.9 | 3.5 | 0.00 | 0.00 | 0.00 | 94 | 1019.3 |
| 20260902030303 | 59 | 82 | 0.0 | 3.5 | 0.00 | 0.00 | 0.00 | 94 | 1019.2 |
| 20260902030203 | 59 | 83 | 0.0 | 3.5 | 0.00 | 0.00 | 0.00 | 94 | 1019.3 |
| 20260902030103 | 59 | 83 | 0.9 | 3.5 | 0.00 | 0.00 | 0.00 | 94 | 1019.1 |
| 20260902030003 | 59 | 85 | 0.9 | 3.5 | 0.00 | 0.00 | 0.00 | 94 | 1019.2 |
| 20260902025903 | 59 | 86 | 0.9 | 3.5 | 0.00 | 0.00 | 0.00 | 94 | 1019.0 |
| 20260902025703 | 59 | 75 | 0.9 | 3.5 | 0.00 | 0.00 | 0.00 | 94 | 1019.1 |
| 20260902025603 | 59 | 74 | 0.9 | 3.5 | 0.00 | 0.00 | 0.00 | 94 | 1019.2 |
| 20260902025504 | 59 | 73 | 1.7 | 3.5 | 0.00 | 0.00 | 0.00 | 93 | 1019.3 |
| 20260902025403 | 59 | 72 | 1.7 | 3.5 | 0.00 | 0.00 | 0.00 | 93 | 1019.3 |
| 20260902025306 | 59 | 75 | 1.7 | 3.5 | 0.00 | 0.00 | 0.00 | 93 | 1019.2 |
| 20260902025203 | 59 | 81 | 1.7 | 3.5 | 0.00 | 0.00 | 0.00 | 93 | 1019.2 |
| 20260902025019 | 59 | 83 | 0.9 | 3.5 | 0.00 | 0.00 | 0.00 | 93 | 1019.1 |
| 20260902025003 | 59 | 82 | 0.9 | 3.5 | 0.00 | 0.00 | 0.00 | 93 | 1019.1 |
| 20260902024903 | 59 | 82 | 1.7 | 3.5 | 0.00 | 0.00 | 0.00 | 93 | 1019.1 |
| 20260902024816 | 59 | 81 | 0.9 | 3.5 | 0.00 | 0.00 | 0.00 | 93 | 1019.3 |
| 20260902024703 | 59 | 75 | 1.7 | 3.5 | 0.00 | 0.00 | 0.00 | 93 | 1019.3 |
| 20260902024617 | 59 | 78 | 0.9 | 3.5 | 0.00 | 0.00 | 0.00 | 93 | 1019.3 |
| 20260902024503 | 59 | 83 | 1.7 | 3.5 | 0.00 | 0.00 | 0.00 | 93 | 1019.0 |
| 20260902024303 | 59 | 92 | 0.9 | 3.5 | 0.00 | 0.00 | 0.00 | 93 | 1019.1 |
| 20260902024203 | 59 | 89 | 1.7 | 3.5 | 0.00 | 0.00 | 0.00 | 93 | 1019.2 |
| 20260902024103 | 59 | 82 | 0.9 | 3.5 | 0.00 | 0.00 | 0.00 | 93 | 1019.3 |
| 20260902024005 | 59 | 78 | 0.9 | 3.5 | 0.00 | 0.00 | 0.00 | 93 | 1019.1 |
| 20260902023918 | 59 | 70 | 1.7 | 3.5 | 0.00 | 0.00 | 0.00 | 93 | 1019.3 |
| 20260902023803 | 59 | 65 | 0.9 | 3.5 | 0.00 | 0.00 | 0.00 | 93 | 1019.5 |
| 20260902023618 | 59 | 76 | 0.0 | 3.5 | 0.00 | 0.00 | 0.00 | 93 | 1019.3 |
| 20260902023603 | 59 | 75 | 0.0 | 3.5 | 0.00 | 0.00 | 0.00 | 93 | 1019.3 |
| 20260902023503 | 59 | 84 | 0.9 | 3.5 | 0.00 | 0.00 | 0.00 | 93 | 1019.2 |
| 20260902023317 | 59 | 93 | 0.0 | 3.5 | 0.00 | 0.00 | 0.00 | 93 | 1019.4 |
| 20260902023303 | 59 | 95 | 0.0 | 3.5 | 0.00 | 0.00 | 0.00 | 93 | 1019.4 |
| 20260902023205 | 59 | 93 | 0.9 | 3.5 | 0.00 | 0.00 | 0.00 | 93 | 1019.3 |
| 20260902023003 | 59 | 93 | 1.7 | 3.5 | 0.00 | 0.00 | 0.00 | 93 | 1019.3 |
| 20260902022903 | 59 | 89 | 1.7 | 3.5 | 0.00 | 0.00 | 0.00 | 93 | 1019.3 |
| 20260902022803 | 59 | 89 | 1.7 | 3.5 | 0.00 | 0.00 | 0.00 | 93 | 1019.2 |
| 20260902022703 | 59 | 82 | 1.7 | 3.5 | 0.00 | 0.00 | 0.00 | 93 | 1019.2 |
| 20260902022603 | 59 | 77 | 0.9 | 3.5 | 0.00 | 0.00 | 0.00 | 93 | 1019.2 |
| 20260902022503 | 59 | 74 | 1.7 | 3.5 | 0.00 | 0.00 | 0.00 | 93 | 1019.4 |
| 20260902022405 | 59 | 77 | 1.7 | 3.5 | 0.00 | 0.00 | 0.00 | 93 | 1019.4 |
| 20260902022306 | 59 | 79 | 1.7 | 3.5 | 0.00 | 0.00 | 0.00 | 93 | 1019.2 |
| 20260902022203 | 59 | 74 | 1.7 | 3.5 | 0.00 | 0.00 | 0.00 | 93 | 1019.2 |
| 20260902022103 | 59 | 77 | 0.9 | 3.5 | 0.00 | 0.00 | 0.00 | 93 | 1019.4 |
| 20260902022003 | 59 | 85 | 1.7 | 3.5 | 0.00 | 0.00 | 0.00 | 93 | 1019.5 |
| 20260902021908 | 59 | 90 | 1.7 | 3.5 | 0.00 | 0.00 | 0.00 | 93 | 1019.3 |
| 20260902021805 | 59 | 81 | 1.7 | 3.5 | 0.00 | 0.00 | 0.00 | 93 | 1019.4 |
| 20260902021703 | 59 | 90 | 1.7 | 3.5 | 0.00 | 0.00 | 0.00 | 93 | 1019.1 |
| 20260902021603 | 59 | 96 | 1.7 | 3.5 | 0.00 | 0.00 | 0.00 | 93 | 1019.4 |
| 20260902021518 | 59 | 93 | 1.7 | 3.5 | 0.00 | 0.00 | 0.00 | 93 | 1019.1 |
| 20260902021503 | 60 | 92 | 1.7 | 3.5 | 0.00 | 0.00 | 0.00 | 93 | 1019.6 |
| 20260902021417 | 60 | 87 | 1.7 | 3.5 | 0.00 | 0.00 | 0.00 | 93 | 1019.5 |
| 20260902021403 | 60 | 89 | 1.7 | 3.5 | 0.00 | 0.00 | 0.00 | 93 | 1019.5 |
| 20260902021317 | 59 | 92 | 1.7 | 3.5 | 0.00 | 0.00 | 0.00 | 92 | 1019.3 |
| 20260902021005 | 60 | 90 | 1.7 | 6.1 | 0.00 | 0.00 | 0.00 | 92 | 1019.5 |
| 20260902020903 | 60 | 90 | 1.7 | 6.1 | 0.00 | 0.00 | 0.00 | 92 | 1019.6 |
| 20260902020803 | 60 | 90 | 1.7 | 6.1 | 0.00 | 0.00 | 0.00 | 92 | 1019.5 |
| 20260902020703 | 60 | 89 | 3.5 | 6.1 | 0.00 | 0.00 | 0.00 | 92 | 1019.4 |
| 20260902020617 | 60 | 88 | 1.7 | 5.2 | 0.00 | 0.00 | 0.00 | 92 | 1019.4 |
| 20260902020603 | 60 | 87 | 1.7 | 5.2 | 0.00 | 0.00 | 0.00 | 92 | 1019.4 |
| 20260902020503 | 60 | 85 | 1.7 | 3.5 | 0.00 | 0.00 | 0.00 | 92 | 1019.6 |
| 20260902020305 | 60 | 76 | 1.7 | 3.5 | 0.00 | 0.00 | 0.00 | 92 | 1019.5 |
| 20260902020203 | 60 | 79 | 1.7 | 3.5 | 0.00 | 0.00 | 0.00 | 92 | 1019.6 |
| 20260902020103 | 60 | 88 | 0.9 | 3.5 | 0.00 | 0.00 | 0.00 | 92 | 1019.6 |
| 20260902020003 | 60 | 82 | 0.9 | 3.5 | 0.00 | 0.00 | 0.00 | 92 | 1019.6 |
| 20260902015917 | 60 | 85 | 0.9 | 3.5 | 0.00 | 0.00 | 0.00 | 92 | 1019.6 |
| 20260902015903 | 60 | 84 | 1.7 | 5.2 | 0.00 | 0.00 | 0.00 | 92 | 1019.7 |
| 20260902015803 | 60 | 81 | 2.6 | 5.2 | 0.00 | 0.00 | 0.00 | 92 | 1019.5 |
| 20260902015617 | 60 | 70 | 1.7 | 5.2 | 0.00 | 0.00 | 0.00 | 92 | 1019.7 |
| 20260902015603 | 60 | 68 | 1.7 | 5.2 | 0.00 | 0.00 | 0.00 | 92 | 1019.7 |
| 20260902015503 | 60 | 70 | 0.9 | 5.2 | 0.00 | 0.00 | 0.00 | 92 | 1019.6 |
| 20260902015416 | 60 | 67 | 3.5 | 5.2 | 0.00 | 0.00 | 0.00 | 92 | 1019.7 |
| 20260902015306 | 60 | 79 | 1.7 | 3.5 | 0.00 | 0.00 | 0.00 | 92 | 1019.4 |
| 20260902015103 | 60 | 85 | 0.9 | 1.7 | 0.00 | 0.00 | 0.00 | 92 | 1019.6 |
| 20260902015003 | 60 | 85 | 0.0 | 1.7 | 0.00 | 0.00 | 0.00 | 92 | 1019.5 |
| 20260902014903 | 60 | 81 | 0.9 | 1.7 | 0.00 | 0.00 | 0.00 | 92 | 1019.6 |
| 20260902014803 | 60 | 76 | 0.9 | 1.7 | 0.00 | 0.00 | 0.00 | 92 | 1019.4 |
| 20260902014703 | 60 | 70 | 0.0 | 1.7 | 0.00 | 0.00 | 0.00 | 92 | 1019.6 |
| 20260902014603 | 60 | 68 | 0.9 | 1.7 | 0.00 | 0.00 | 0.00 | 92 | 1019.7 |
| 20260902014503 | 60 | 70 | 0.9 | 1.7 | 0.00 | 0.00 | 0.00 | 92 | 1019.8 |
| 20260902014403 | 60 | 69 | 1.7 | 3.5 | 0.00 | 0.00 | 0.00 | 92 | 1019.7 |
| 20260902014303 | 60 | 72 | 1.7 | 3.5 | 0.00 | 0.00 | 0.00 | 92 | 1019.6 |
| 20260902014203 | 60 | 76 | 0.0 | 3.5 | 0.00 | 0.00 | 0.00 | 92 | 1019.5 |
| 20260902014118 | 60 | 78 | 0.0 | 3.5 | 0.00 | 0.00 | 0.00 | 92 | 1019.6 |
| 20260902014103 | 60 | 76 | 0.0 | 3.5 | 0.00 | 0.00 | 0.00 | 92 | 1019.6 |
| 20260902014003 | 60 | 73 | 0.9 | 3.5 | 0.00 | 0.00 | 0.00 | 92 | 1019.5 |
| 20260902013803 | 60 | 70 | 1.7 | 3.5 | 0.00 | 0.00 | 0.00 | 91 | 1019.5 |
| 20260902013703 | 60 | 66 | 0.9 | 3.5 | 0.00 | 0.00 | 0.00 | 91 | 1019.5 |
| 20260902013603 | 60 | 66 | 0.9 | 3.5 | 0.00 | 0.00 | 0.00 | 91 | 1019.5 |
| 20260902013503 | 60 | 69 | 1.7 | 3.5 | 0.00 | 0.00 | 0.00 | 91 | 1019.7 |
| 20260902013403 | 60 | 76 | 0.9 | 3.5 | 0.00 | 0.00 | 0.00 | 91 | 1019.7 |
| 20260902013303 | 60 | 79 | 0.9 | 3.5 | 0.00 | 0.00 | 0.00 | 91 | 1019.5 |
| 20260902013203 | 60 | 84 | 1.7 | 3.5 | 0.00 | 0.00 | 0.00 | 91 | 1019.6 |
| 20260902013103 | 60 | 87 | 0.9 | 3.5 | 0.00 | 0.00 | 0.00 | 91 | 1019.5 |
| 20260902013003 | 60 | 95 | 0.9 | 3.5 | 0.00 | 0.00 | 0.00 | 91 | 1019.4 |
| 20260902012903 | 60 | 94 | 1.7 | 3.5 | 0.00 | 0.00 | 0.00 | 91 | 1019.5 |
| 20260902012803 | 60 | 89 | 0.9 | 3.5 | 0.00 | 0.00 | 0.00 | 91 | 1019.3 |
| 20260902012703 | 60 | 93 | 1.7 | 3.5 | 0.00 | 0.00 | 0.00 | 91 | 1019.5 |
| 20260902012617 | 60 | 93 | 1.7 | 3.5 | 0.00 | 0.00 | 0.00 | 91 | 1019.6 |
| 20260902012603 | 60 | 90 | 1.7 | 3.5 | 0.00 | 0.00 | 0.00 | 91 | 1019.6 |
| 20260902012503 | 60 | 85 | 0.0 | 3.5 | 0.00 | 0.00 | 0.00 | 91 | 1019.7 |
| 20260902012309 | 60 | 88 | 1.7 | 3.5 | 0.00 | 0.00 | 0.00 | 91 | 1019.6 |
| 20260902012203 | 60 | 82 | 2.6 | 3.5 | 0.00 | 0.00 | 0.00 | 91 | 1019.7 |
| 20260902012103 | 60 | 87 | 1.7 | 3.5 | 0.00 | 0.00 | 0.00 | 91 | 1019.6 |
| 20260902012003 | 60 | 90 | 1.7 | 3.5 | 0.00 | 0.00 | 0.00 | 91 | 1019.6 |
| 20260902011917 | 60 | 86 | 1.7 | 3.5 | 0.00 | 0.00 | 0.00 | 91 | 1019.5 |
| 20260902011903 | 60 | 87 | 0.9 | 3.5 | 0.00 | 0.00 | 0.00 | 91 | 1019.4 |
| 20260902011803 | 60 | 83 | 0.0 | 3.5 | 0.00 | 0.00 | 0.00 | 91 | 1019.6 |
| 20260902011716 | 60 | 80 | 0.9 | 3.5 | 0.00 | 0.00 | 0.00 | 90 | 1019.5 |
| 20260902011603 | 60 | 80 | 1.7 | 3.5 | 0.00 | 0.00 | 0.00 | 90 | 1019.3 |
| 20260902011303 | 60 | 74 | 0.9 | 3.5 | 0.00 | 0.00 | 0.00 | 90 | 1019.4 |
| 20260902011203 | 60 | 74 | 0.9 | 3.5 | 0.00 | 0.00 | 0.00 | 90 | 1019.4 |
| 20260902011003 | 60 | 80 | 1.7 | 3.5 | 0.00 | 0.00 | 0.00 | 90 | 1019.5 |
| 20260902010903 | 60 | 82 | 0.9 | 3.5 | 0.00 | 0.00 | 0.00 | 90 | 1019.6 |
| 20260902010803 | 60 | 82 | 1.7 | 3.5 | 0.00 | 0.00 | 0.00 | 90 | 1019.5 |
| 20260902010703 | 60 | 82 | 1.7 | 3.5 | 0.00 | 0.00 | 0.00 | 90 | 1019.7 |
| 20260902010603 | 61 | 75 | 1.7 | 3.5 | 0.00 | 0.00 | 0.00 | 90 | 1019.6 |
| 20260902010503 | 61 | 65 | 0.9 | 3.5 | 0.00 | 0.00 | 0.00 | 90 | 1019.6 |
| 20260902010418 | 61 | 64 | 0.9 | 3.5 | 0.00 | 0.00 | 0.00 | 90 | 1019.6 |
| 20260902010403 | 61 | 63 | 0.9 | 3.5 | 0.00 | 0.00 | 0.00 | 90 | 1019.6 |
| 20260902010303 | 61 | 64 | 0.9 | 3.5 | 0.00 | 0.00 | 0.00 | 90 | 1019.6 |
| 20260902010003 | 61 | 75 | 1.7 | 5.2 | 0.00 | 0.00 | 0.00 | 90 | 1019.6 |
| 20260902005904 | 61 | 77 | 0.9 | 5.2 | 0.00 | 0.00 | 0.00 | 90 | 1019.4 |
| 20260902005803 | 61 | 72 | 1.7 | 5.2 | 0.00 | 0.00 | 0.00 | 90 | 1019.6 |
| 20260902005703 | 61 | 67 | 2.6 | 5.2 | 0.00 | 0.00 | 0.00 | 90 | 1019.4 |
| 20260902005603 | 61 | 67 | 1.7 | 5.2 | 0.00 | 0.00 | 0.00 | 90 | 1019.5 |
| 20260902005503 | 61 | 65 | 1.7 | 5.2 | 0.00 | 0.00 | 0.00 | 90 | 1019.3 |
| 20260902005403 | 61 | 65 | 0.9 | 5.2 | 0.00 | 0.00 | 0.00 | 90 | 1019.4 |
| 20260902005306 | 61 | 67 | 1.7 | 5.2 | 0.00 | 0.00 | 0.00 | 89 | 1019.5 |
| 20260902005203 | 61 | 73 | 1.7 | 5.2 | 0.00 | 0.00 | 0.00 | 89 | 1019.4 |
| 20260902005103 | 61 | 77 | 2.6 | 5.2 | 0.00 | 0.00 | 0.00 | 89 | 1019.5 |
| 20260902005003 | 61 | 89 | 0.9 | 3.5 | 0.00 | 0.00 | 0.00 | 89 | 1019.5 |
| 20260902004903 | 61 | 89 | 1.7 | 3.5 | 0.00 | 0.00 | 0.00 | 89 | 1019.3 |
| 20260902004818 | 61 | 87 | 0.9 | 3.5 | 0.00 | 0.00 | 0.00 | 89 | 1019.4 |
| 20260902004803 | 61 | 86 | 0.9 | 3.5 | 0.00 | 0.00 | 0.00 | 89 | 1019.4 |
| 20260902004703 | 61 | 82 | 1.7 | 3.5 | 0.00 | 0.00 | 0.00 | 89 | 1019.6 |
| 20260902004503 | 61 | 75 | 1.7 | 3.5 | 0.00 | 0.00 | 0.00 | 89 | 1019.7 |
| 20260902004403 | 61 | 72 | 1.7 | 3.5 | 0.00 | 0.00 | 0.00 | 89 | 1019.6 |
| 20260902004317 | 61 | 75 | 1.7 | 3.5 | 0.00 | 0.00 | 0.00 | 89 | 1019.6 |
| 20260902004303 | 61 | 78 | 0.9 | 3.5 | 0.00 | 0.00 | 0.00 | 89 | 1019.8 |
| 20260902004203 | 61 | 76 | 1.7 | 3.5 | 0.00 | 0.00 | 0.00 | 89 | 1019.6 |
| 20260902004118 | 61 | 76 | 0.9 | 3.5 | 0.00 | 0.00 | 0.00 | 89 | 1019.6 |
| 20260902004016 | 61 | 73 | 1.7 | 3.5 | 0.00 | 0.00 | 0.00 | 89 | 1019.6 |
| 20260902004003 | 61 | 69 | 1.7 | 3.5 | 0.00 | 0.00 | 0.00 | 89 | 1019.6 |
| 20260902003917 | 61 | 67 | 1.7 | 3.5 | 0.00 | 0.00 | 0.00 | 89 | 1019.7 |
| 20260902003718 | 61 | 64 | 1.7 | 3.5 | 0.00 | 0.00 | 0.00 | 89 | 1019.9 |
| 20260902003603 | 61 | 61 | 1.7 | 3.5 | 0.00 | 0.00 | 0.00 | 89 | 1019.7 |
| 20260902003418 | 61 | 65 | 1.7 | 3.5 | 0.00 | 0.00 | 0.00 | 89 | 1019.8 |
| 20260902003403 | 61 | 66 | 1.7 | 3.5 | 0.00 | 0.00 | 0.00 | 89 | 1019.8 |
| 20260902003303 | 61 | 66 | 1.7 | 3.5 | 0.00 | 0.00 | 0.00 | 89 | 1019.5 |
| 20260902003103 | 61 | 64 | 0.9 | 3.5 | 0.00 | 0.00 | 0.00 | 89 | 1019.8 |
| 20260902003003 | 61 | 63 | 1.7 | 3.5 | 0.00 | 0.00 | 0.00 | 89 | 1019.6 |
| 20260902002903 | 61 | 63 | 1.7 | 3.5 | 0.00 | 0.00 | 0.00 | 89 | 1019.6 |
| 20260902002803 | 61 | 67 | 2.6 | 3.5 | 0.00 | 0.00 | 0.00 | 88 | 1019.7 |
| 20260902002703 | 61 | 61 | 1.7 | 3.5 | 0.00 | 0.00 | 0.00 | 88 | 1019.5 |
| 20260902002603 | 61 | 67 | 1.7 | 3.5 | 0.00 | 0.00 | 0.00 | 88 | 1019.8 |
| 20260902002503 | 61 | 69 | 1.7 | 3.5 | 0.00 | 0.00 | 0.00 | 88 | 1019.5 |
| 20260902002403 | 61 | 73 | 1.7 | 3.5 | 0.00 | 0.00 | 0.00 | 88 | 1019.6 |
| 20260902002306 | 61 | 62 | 1.7 | 3.5 | 0.00 | 0.00 | 0.00 | 88 | 1019.7 |
| 20260902002203 | 62 | 73 | 0.0 | 3.5 | 0.00 | 0.00 | 0.00 | 88 | 1019.5 |
| 20260902002103 | 61 | 63 | 0.9 | 3.5 | 0.00 | 0.00 | 0.00 | 88 | 1019.7 |
| 20260902002003 | 62 | 63 | 0.9 | 3.5 | 0.00 | 0.00 | 0.00 | 88 | 1019.5 |
| 20260902001903 | 61 | 61 | 1.7 | 3.5 | 0.00 | 0.00 | 0.00 | 88 | 1019.7 |
| 20260902001818 | 61 | 65 | 1.7 | 3.5 | 0.00 | 0.00 | 0.00 | 88 | 1019.9 |
| 20260902001803 | 61 | 64 | 1.7 | 3.5 | 0.00 | 0.00 | 0.00 | 88 | 1019.9 |
| 20260902001703 | 62 | 61 | 1.7 | 3.5 | 0.00 | 0.00 | 0.00 | 88 | 1019.4 |
| 20260902001503 | 62 | 69 | 0.9 | 3.5 | 0.00 | 0.00 | 0.00 | 88 | 1019.5 |
| 20260902001403 | 62 | 67 | 1.7 | 3.5 | 0.00 | 0.00 | 0.00 | 88 | 1019.6 |
| 20260902001303 | 62 | 67 | 1.7 | 3.5 | 0.00 | 0.00 | 0.00 | 88 | 1019.6 |
| 20260902001203 | 62 | 70 | 1.7 | 3.5 | 0.00 | 0.00 | 0.00 | 87 | 1019.6 |
| 20260902001103 | 62 | 72 | 1.7 | 3.5 | 0.00 | 0.00 | 0.00 | 87 | 1019.8 |
| 20260902001003 | 62 | 82 | 1.7 | 3.5 | 0.00 | 0.00 | 0.00 | 87 | 1019.8 |
| 20260902000903 | 62 | 86 | 0.9 | 3.5 | 0.00 | 0.00 | 0.00 | 87 | 1019.6 |
| 20260902000803 | 62 | 94 | 0.9 | 3.5 | 0.00 | 0.00 | 0.00 | 87 | 1019.6 |
| 20260902000718 | 62 | 95 | 0.9 | 3.5 | 0.00 | 0.00 | 0.00 | 87 | 1019.5 |
| 20260902000703 | 62 | 95 | 0.9 | 3.5 | 0.00 | 0.00 | 0.00 | 87 | 1019.6 |
| 20260902000603 | 62 | 97 | 1.7 | 3.5 | 0.00 | 0.00 | 0.00 | 87 | 1019.6 |
| 20260902000403 | 62 | 89 | 0.9 | 3.5 | 0.00 | 0.00 | 0.00 | 87 | 1020.0 |
| 20260902000304 | 62 | 79 | 0.0 | 3.5 | 0.00 | 0.00 | 0.00 | 87 | 1019.5 |
| 20260902000204 | 62 | 82 | 1.7 | 3.5 | 0.00 | 0.00 | 0.00 | 87 | 1019.7 |
| 20260902000103 | 62 | 83 | 1.7 | 3.5 | 0.00 | 0.00 | 0.00 | 87 | 1020.0 |
| 20260902000004 | 62 | 79 | 1.7 | 3.5 | 0.00 | 0.00 | 0.00 | 87 | 1019.9 |
| 20260901235903 | 62 | 76 | 1.7 | 3.5 | 0.00 | 0.00 | 0.00 | 86 | 1019.7 |
| 20260901235803 | 62 | 79 | 0.9 | 3.5 | 0.00 | 0.00 | 0.00 | 86 | 1019.6 |
| 20260901235703 | 62 | 80 | 0.9 | 3.5 | 0.00 | 0.00 | 0.00 | 86 | 1019.4 |
| 20260901235603 | 62 | 79 | 1.7 | 3.5 | 0.00 | 0.00 | 0.00 | 86 | 1019.5 |
| 20260901235503 | 62 | 83 | 1.7 | 3.5 | 0.00 | 0.00 | 0.00 | 86 | 1019.6 |
| 20260901235403 | 62 | 88 | 1.7 | 3.5 | 0.00 | 0.00 | 0.00 | 86 | 1019.4 |
| 20260901235307 | 63 | 89 | 1.7 | 3.5 | 0.00 | 0.00 | 0.00 | 86 | 1019.5 |
| 20260901235203 | 63 | 87 | 1.7 | 3.5 | 0.00 | 0.00 | 0.00 | 86 | 1019.5 |
| 20260901235103 | 63 | 80 | 0.9 | 3.5 | 0.00 | 0.00 | 0.00 | 86 | 1019.4 |
| 20260901235003 | 63 | 78 | 1.7 | 3.5 | 0.00 | 0.00 | 0.00 | 86 | 1019.2 |
| 20260901234903 | 63 | 79 | 1.7 | 3.5 | 0.00 | 0.00 | 0.00 | 85 | 1019.5 |
| 20260901234803 | 63 | 76 | 1.7 | 3.5 | 0.00 | 0.00 | 0.00 | 85 | 1019.7 |
| 20260901234703 | 63 | 78 | 0.9 | 3.5 | 0.00 | 0.00 | 0.00 | 85 | 1019.3 |
| 20260901234603 | 63 | 84 | 1.7 | 3.5 | 0.00 | 0.00 | 0.00 | 85 | 1019.4 |
| 20260901234503 | 63 | 82 | 0.9 | 3.5 | 0.00 | 0.00 | 0.00 | 85 | 1019.3 |
| 20260901234403 | 63 | 83 | 1.7 | 3.5 | 0.00 | 0.00 | 0.00 | 85 | 1019.3 |
| 20260901234303 | 63 | 82 | 1.7 | 3.5 | 0.00 | 0.00 | 0.00 | 85 | 1019.2 |
| 20260901234203 | 63 | 81 | 1.7 | 3.5 | 0.00 | 0.00 | 0.00 | 85 | 1019.5 |
| 20260901234103 | 63 | 78 | 1.7 | 3.5 | 0.00 | 0.00 | 0.00 | 85 | 1019.5 |
| 20260901234018 | 63 | 73 | 1.7 | 3.5 | 0.00 | 0.00 | 0.00 | 85 | 1019.4 |
| 20260901234003 | 63 | 72 | 1.7 | 3.5 | 0.00 | 0.00 | 0.00 | 85 | 1019.4 |
| 20260901233903 | 63 | 73 | 0.9 | 3.5 | 0.00 | 0.00 | 0.00 | 85 | 1019.4 |
| 20260901233703 | 63 | 79 | 1.7 | 3.5 | 0.00 | 0.00 | 0.00 | 85 | 1019.4 |
| 20260901233603 | 63 | 77 | 1.7 | 3.5 | 0.00 | 0.00 | 0.00 | 85 | 1019.3 |
| 20260901233503 | 63 | 80 | 1.7 | 3.5 | 0.00 | 0.00 | 0.00 | 84 | 1019.0 |
| 20260901233403 | 63 | 79 | 0.9 | 3.5 | 0.00 | 0.00 | 0.00 | 84 | 1019.3 |
| 20260901233303 | 63 | 77 | 1.7 | 3.5 | 0.00 | 0.00 | 0.00 | 84 | 1019.5 |
| 20260901233217 | 63 | 77 | 1.7 | 3.5 | 0.00 | 0.00 | 0.00 | 84 | 1019.3 |
| 20260901233203 | 63 | 76 | 1.7 | 3.5 | 0.00 | 0.00 | 0.00 | 84 | 1019.3 |
| 20260901233117 | 63 | 76 | 1.7 | 3.5 | 0.00 | 0.00 | 0.00 | 84 | 1019.4 |
| 20260901233103 | 63 | 78 | 0.9 | 3.5 | 0.00 | 0.00 | 0.00 | 84 | 1019.3 |
| 20260901232803 | 63 | 73 | 1.7 | 3.5 | 0.00 | 0.00 | 0.00 | 84 | 1019.3 |
| 20260901232703 | 63 | 70 | 0.9 | 3.5 | 0.00 | 0.00 | 0.00 | 84 | 1019.2 |
| 20260901232603 | 63 | 78 | 1.7 | 5.2 | 0.00 | 0.00 | 0.00 | 84 | 1019.1 |
| 20260901232503 | 63 | 90 | 1.7 | 5.2 | 0.00 | 0.00 | 0.00 | 84 | 1019.6 |
| 20260901232403 | 63 | 91 | 0.9 | 5.2 | 0.00 | 0.00 | 0.00 | 84 | 1019.3 |
| 20260901232306 | 63 | 94 | 1.7 | 5.2 | 0.00 | 0.00 | 0.00 | 84 | 1019.4 |
| 20260901232203 | 63 | 92 | 1.7 | 5.2 | 0.00 | 0.00 | 0.00 | 83 | 1019.5 |
| 20260901232103 | 63 | 85 | 1.7 | 5.2 | 0.00 | 0.00 | 0.00 | 83 | 1019.3 |
| 20260901232003 | 63 | 76 | 1.7 | 3.5 | 0.00 | 0.00 | 0.00 | 83 | 1019.4 |
| 20260901231916 | 63 | 82 | 1.7 | 3.5 | 0.00 | 0.00 | 0.00 | 83 | 1019.4 |
| 20260901231903 | 63 | 83 | 0.9 | 3.5 | 0.00 | 0.00 | 0.00 | 83 | 1019.2 |
| 20260901231803 | 63 | 78 | 0.9 | 3.5 | 0.00 | 0.00 | 0.00 | 83 | 1019.1 |
| 20260901231718 | 63 | 79 | 1.7 | 3.5 | 0.00 | 0.00 | 0.00 | 83 | 1019.2 |
| 20260901231604 | 63 | 77 | 1.7 | 3.5 | 0.00 | 0.00 | 0.00 | 83 | 1019.3 |
| 20260901231517 | 63 | 79 | 1.7 | 3.5 | 0.00 | 0.00 | 0.00 | 83 | 1019.3 |
| 20260901231417 | 63 | 75 | 0.9 | 3.5 | 0.00 | 0.00 | 0.00 | 83 | 1019.4 |
| 20260901231403 | 63 | 74 | 0.9 | 3.5 | 0.00 | 0.00 | 0.00 | 83 | 1019.4 |
| 20260901231318 | 63 | 74 | 1.7 | 3.5 | 0.00 | 0.00 | 0.00 | 83 | 1019.4 |
| 20260901231117 | 63 | 74 | 1.7 | 3.5 | 0.00 | 0.00 | 0.00 | 83 | 1019.4 |
| 20260901231018 | 63 | 66 | 1.7 | 3.5 | 0.00 | 0.00 | 0.00 | 83 | 1019.2 |
| 20260901231003 | 63 | 65 | 1.7 | 3.5 | 0.00 | 0.00 | 0.00 | 83 | 1019.2 |
| 20260901230718 | 63 | 77 | 2.6 | 3.5 | 0.00 | 0.00 | 0.00 | 83 | 1019.3 |
| 20260901230707 | 63 | 78 | 1.7 | 3.5 | 0.00 | 0.00 | 0.00 | 83 | 1019.3 |
| 20260901230603 | 63 | 89 | 1.7 | 3.5 | 0.00 | 0.00 | 0.00 | 83 | 1019.3 |
| 20260901230403 | 63 | 103 | 1.7 | 3.5 | 0.00 | 0.00 | 0.00 | 82 | 1019.1 |
| 20260901230303 | 64 | 104 | 1.7 | 3.5 | 0.00 | 0.00 | 0.00 | 82 | 1019.1 |
| 20260901230218 | 64 | 108 | 1.7 | 3.5 | 0.00 | 0.00 | 0.00 | 82 | 1019.1 |
| 20260901230203 | 64 | 106 | 1.7 | 3.5 | 0.00 | 0.00 | 0.00 | 82 | 1019.1 |
| 20260901230103 | 64 | 94 | 1.7 | 3.5 | 0.00 | 0.00 | 0.00 | 82 | 1019.0 |
| 20260901225903 | 64 | 84 | 1.7 | 3.5 | 0.00 | 0.00 | 0.00 | 82 | 1019.2 |
| 20260901225817 | 64 | 81 | 1.7 | 3.5 | 0.00 | 0.00 | 0.00 | 82 | 1019.1 |
| 20260901225803 | 64 | 79 | 1.7 | 3.5 | 0.00 | 0.00 | 0.00 | 82 | 1019.1 |
| 20260901225718 | 64 | 77 | 1.7 | 3.5 | 0.00 | 0.00 | 0.00 | 82 | 1019.2 |
| 20260901225703 | 64 | 78 | 1.7 | 3.5 | 0.00 | 0.00 | 0.00 | 82 | 1019.2 |
| 20260901225403 | 64 | 92 | 1.7 | 3.5 | 0.00 | 0.00 | 0.00 | 81 | 1019.5 |
| 20260901225318 | 64 | 101 | 1.7 | 3.5 | 0.00 | 0.00 | 0.00 | 81 | 1019.3 |
| 20260901225306 | 64 | 103 | 1.7 | 3.5 | 0.00 | 0.00 | 0.00 | 81 | 1019.3 |
| 20260901225203 | 64 | 101 | 0.9 | 1.7 | 0.00 | 0.00 | 0.00 | 81 | 1019.4 |
| 20260901225117 | 64 | 104 | 0.9 | 3.5 | 0.00 | 0.00 | 0.00 | 81 | 1019.5 |
| 20260901225003 | 64 | 105 | 0.9 | 3.5 | 0.00 | 0.00 | 0.00 | 81 | 1019.4 |
| 20260901224703 | 64 | 99 | 1.7 | 3.5 | 0.00 | 0.00 | 0.00 | 80 | 1019.4 |
| 20260901224603 | 64 | 88 | 1.7 | 3.5 | 0.00 | 0.00 | 0.00 | 80 | 1019.2 |
| 20260901224503 | 64 | 82 | 1.7 | 3.5 | 0.00 | 0.00 | 0.00 | 80 | 1019.2 |
| 20260901224403 | 64 | 77 | 0.9 | 3.5 | 0.00 | 0.00 | 0.00 | 80 | 1019.2 |
| 20260901224203 | 64 | 84 | 0.0 | 5.2 | 0.00 | 0.00 | 0.00 | 80 | 1019.2 |
| 20260901224103 | 64 | 93 | 1.7 | 5.2 | 0.00 | 0.00 | 0.00 | 80 | 1019.2 |
| 20260901224003 | 64 | 97 | 1.7 | 5.2 | 0.00 | 0.00 | 0.00 | 80 | 1019.3 |
| 20260901223903 | 64 | 104 | 2.6 | 5.2 | 0.00 | 0.00 | 0.00 | 80 | 1019.0 |
| 20260901223803 | 64 | 112 | 1.7 | 3.5 | 0.00 | 0.00 | 0.00 | 80 | 1018.9 |
| 20260901223703 | 64 | 116 | 1.7 | 3.5 | 0.00 | 0.00 | 0.00 | 80 | 1019.3 |
| 20260901223603 | 64 | 113 | 1.7 | 3.5 | 0.00 | 0.00 | 0.00 | 79 | 1019.3 |
| 20260901223503 | 64 | 108 | 1.7 | 3.5 | 0.00 | 0.00 | 0.00 | 79 | 1019.2 |
| 20260901223403 | 64 | 104 | 1.7 | 3.5 | 0.00 | 0.00 | 0.00 | 79 | 1019.1 |
| 20260901223303 | 64 | 93 | 1.7 | 3.5 | 0.00 | 0.00 | 0.00 | 79 | 1019.1 |
| 20260901223206 | 65 | 85 | 1.7 | 3.5 | 0.00 | 0.00 | 0.00 | 79 | 1019.1 |
| 20260901223103 | 65 | 75 | 1.7 | 3.5 | 0.00 | 0.00 | 0.00 | 79 | 1019.1 |
| 20260901223003 | 65 | 79 | 1.7 | 3.5 | 0.00 | 0.00 | 0.00 | 79 | 1019.1 |
| 20260901222903 | 65 | 83 | 1.7 | 3.5 | 0.00 | 0.00 | 0.00 | 79 | 1018.9 |
| 20260901222803 | 65 | 73 | 1.7 | 3.5 | 0.00 | 0.00 | 0.00 | 78 | 1019.2 |
| 20260901222703 | 65 | 62 | 1.7 | 3.5 | 0.00 | 0.00 | 0.00 | 78 | 1019.0 |
| 20260901222603 | 65 | 69 | 1.7 | 3.5 | 0.00 | 0.00 | 0.00 | 78 | 1019.0 |
| 20260901222516 | 65 | 57 | 0.9 | 3.5 | 0.00 | 0.00 | 0.00 | 78 | 1019.1 |
| 20260901222503 | 65 | 56 | 0.9 | 3.5 | 0.00 | 0.00 | 0.00 | 78 | 1019.1 |
| 20260901222403 | 65 | 55 | 1.7 | 3.5 | 0.00 | 0.00 | 0.00 | 78 | 1019.2 |
| 20260901222203 | 65 | 80 | 1.7 | 3.5 | 0.00 | 0.00 | 0.00 | 77 | 1019.0 |
| 20260901222103 | 65 | 79 | 1.7 | 3.5 | 0.00 | 0.00 | 0.00 | 77 | 1018.6 |
| 20260901222003 | 65 | 84 | 0.9 | 3.5 | 0.00 | 0.00 | 0.00 | 77 | 1019.1 |
| 20260901221918 | 65 | 86 | 1.7 | 3.5 | 0.00 | 0.00 | 0.00 | 77 | 1019.0 |
| 20260901221903 | 65 | 84 | 1.7 | 3.5 | 0.00 | 0.00 | 0.00 | 77 | 1018.8 |
| 20260901221803 | 65 | 76 | 0.9 | 3.5 | 0.00 | 0.00 | 0.00 | 77 | 1018.7 |
| 20260901221603 | 65 | 80 | 1.7 | 3.5 | 0.00 | 0.00 | 0.00 | 76 | 1018.8 |
| 20260901221516 | 65 | 93 | 1.7 | 5.2 | 0.00 | 0.00 | 0.00 | 76 | 1018.9 |
| 20260901221503 | 65 | 93 | 1.7 | 5.2 | 0.00 | 0.00 | 0.00 | 76 | 1019.0 |
| 20260901221403 | 65 | 91 | 1.7 | 5.2 | 0.00 | 0.00 | 0.00 | 76 | 1018.9 |
| 20260901221203 | 65 | 92 | 1.7 | 6.1 | 0.00 | 0.00 | 0.00 | 76 | 1018.8 |
| 20260901221103 | 65 | 84 | 2.6 | 6.1 | 0.00 | 0.00 | 0.00 | 75 | 1018.9 |
| 20260901221003 | 65 | 77 | 1.7 | 6.1 | 0.00 | 0.00 | 0.00 | 75 | 1018.8 |
| 20260901220903 | 65 | 75 | 2.6 | 6.1 | 0.00 | 0.00 | 0.00 | 75 | 1018.9 |
| 20260901220817 | 65 | 82 | 3.5 | 6.1 | 0.00 | 0.00 | 0.00 | 75 | 1019.0 |
| 20260901220803 | 65 | 86 | 3.5 | 6.1 | 0.00 | 0.00 | 0.00 | 75 | 1019.0 |
| 20260901220703 | 65 | 84 | 2.6 | 6.1 | 0.00 | 0.00 | 0.00 | 75 | 1018.9 |
| 20260901220503 | 66 | 74 | 2.6 | 6.1 | 0.00 | 0.00 | 0.00 | 74 | 1018.9 |
| 20260901220417 | 66 | 76 | 3.5 | 6.1 | 0.00 | 0.00 | 0.00 | 74 | 1018.8 |
| 20260901220403 | 66 | 77 | 3.5 | 6.1 | 0.00 | 0.00 | 0.00 | 74 | 1018.8 |
| 20260901220303 | 66 | 70 | 3.5 | 6.1 | 0.00 | 0.00 | 0.00 | 74 | 1019.0 |
| 20260901220218 | 66 | 73 | 3.5 | 6.1 | 0.00 | 0.00 | 0.00 | 74 | 1018.9 |
| 20260901220103 | 66 | 75 | 2.6 | 5.2 | 0.00 | 0.00 | 0.00 | 73 | 1019.0 |
| 20260901215903 | 66 | 65 | 1.7 | 5.2 | 0.00 | 0.00 | 0.00 | 73 | 1019.0 |
| 20260901215817 | 66 | 63 | 2.6 | 5.2 | 0.00 | 0.00 | 0.00 | 73 | 1019.1 |
| 20260901215803 | 66 | 62 | 2.6 | 5.2 | 0.00 | 0.00 | 0.00 | 73 | 1019.1 |
| 20260901215703 | 66 | 56 | 1.7 | 5.2 | 0.00 | 0.00 | 0.00 | 72 | 1019.0 |
| 20260901215503 | 67 | 55 | 1.7 | 3.5 | 0.00 | 0.00 | 0.00 | 72 | 1019.1 |
| 20260901215403 | 67 | 39 | 1.7 | 3.5 | 0.00 | 0.00 | 0.00 | 72 | 1019.1 |
| 20260901215306 | 67 | 35 | 1.7 | 3.5 | 0.00 | 0.00 | 0.00 | 72 | 1019.1 |
| 20260901215203 | 67 | 37 | 0.9 | 3.5 | 0.00 | 0.00 | 0.00 | 72 | 1018.9 |
| 20260901215103 | 67 | 51 | 0.9 | 3.5 | 0.00 | 0.00 | 0.00 | 71 | 1019.0 |
| 20260901215017 | 67 | 58 | 0.9 | 3.5 | 0.00 | 0.00 | 0.00 | 71 | 1019.0 |
| 20260901215003 | 67 | 59 | 0.9 | 3.5 | 0.00 | 0.00 | 0.00 | 71 | 1019.0 |
| 20260901214903 | 67 | 62 | 0.9 | 3.5 | 0.00 | 0.00 | 0.00 | 71 | 1019.0 |
| 20260901214717 | 67 | 59 | 1.7 | 3.5 | 0.00 | 0.00 | 0.00 | 71 | 1018.9 |
| 20260901214703 | 67 | 60 | 1.7 | 3.5 | 0.00 | 0.00 | 0.00 | 71 | 1019.2 |
| 20260901214603 | 67 | 55 | 1.7 | 3.5 | 0.00 | 0.00 | 0.00 | 70 | 1019.1 |
| 20260901214403 | 67 | 57 | 0.9 | 3.5 | 0.00 | 0.00 | 0.00 | 70 | 1019.1 |
| 20260901214303 | 67 | 58 | 1.7 | 3.5 | 0.00 | 0.00 | 0.00 | 70 | 1019.3 |
| 20260901214203 | 67 | 60 | 1.7 | 3.5 | 0.00 | 0.00 | 0.00 | 70 | 1019.1 |
| 20260901214103 | 67 | 51 | 1.7 | 3.5 | 0.00 | 0.00 | 0.00 | 70 | 1019.0 |
| 20260901214003 | 67 | 55 | 1.7 | 3.5 | 0.00 | 0.00 | 0.00 | 70 | 1019.1 |
| 20260901213903 | 68 | 66 | 1.7 | 3.5 | 0.00 | 0.00 | 0.00 | 71 | 1019.2 |
| 20260901213803 | 68 | 72 | 0.9 | 3.5 | 0.00 | 0.00 | 0.00 | 71 | 1019.0 |
| 20260901213703 | 68 | 76 | 0.9 | 3.5 | 0.00 | 0.00 | 0.00 | 71 | 1019.2 |
| 20260901213603 | 68 | 73 | 0.9 | 3.5 | 0.00 | 0.00 | 0.00 | 71 | 1019.4 |
| 20260901213518 | 68 | 59 | 1.7 | 3.5 | 0.00 | 0.00 | 0.00 | 71 | 1019.2 |
| 20260901213503 | 68 | 56 | 1.7 | 3.5 | 0.00 | 0.00 | 0.00 | 71 | 1019.1 |
| 20260901213403 | 68 | 48 | 0.0 | 3.5 | 0.00 | 0.00 | 0.00 | 72 | 1019.3 |
| 20260901213203 | 68 | 45 | 1.7 | 3.5 | 0.00 | 0.00 | 0.00 | 71 | 1019.1 |
| 20260901213117 | 68 | 41 | 2.6 | 3.5 | 0.00 | 0.00 | 0.00 | 71 | 1019.1 |
| 20260901213103 | 68 | 37 | 0.9 | 3.5 | 0.00 | 0.00 | 0.00 | 72 | 1019.1 |
| 20260901213017 | 68 | 39 | 1.7 | 3.5 | 0.00 | 0.00 | 0.00 | 72 | 1019.3 |
| 20260901213003 | 68 | 38 | 1.7 | 3.5 | 0.00 | 0.00 | 0.00 | 72 | 1019.3 |
| 20260901212816 | 69 | 32 | 0.9 | 5.2 | 0.00 | 0.00 | 0.00 | 72 | 1019.2 |
| 20260901212703 | 68 | 21 | 0.9 | 6.1 | 0.00 | 0.00 | 0.00 | 72 | 1019.2 |
| 20260901212503 | 68 | 27 | 0.9 | 6.1 | 0.00 | 0.00 | 0.00 | 72 | 1019.1 |
| 20260901212403 | 68 | 22 | 1.7 | 6.1 | 0.00 | 0.00 | 0.00 | 73 | 1019.1 |
| 20260901212306 | 68 | 25 | 1.7 | 6.1 | 0.00 | 0.00 | 0.00 | 72 | 1019.1 |
| 20260901212205 | 68 | 21 | 3.5 | 6.1 | 0.00 | 0.00 | 0.00 | 72 | 1019.1 |
| 20260901212117 | 69 | 19 | 1.7 | 5.2 | 0.00 | 0.00 | 0.00 | 72 | 1019.2 |
| 20260901212103 | 69 | 23 | 1.7 | 5.2 | 0.00 | 0.00 | 0.00 | 72 | 1019.2 |
| 20260901212003 | 69 | 29 | 1.7 | 3.5 | 0.00 | 0.00 | 0.00 | 72 | 1019.2 |
| 20260901211803 | 69 | 23 | 1.7 | 6.1 | 0.00 | 0.00 | 0.00 | 72 | 1019.0 |
| 20260901211703 | 69 | 24 | 1.7 | 6.1 | 0.00 | 0.00 | 0.00 | 72 | 1019.0 |
| 20260901211603 | 69 | 16 | 2.6 | 6.1 | 0.00 | 0.00 | 0.00 | 72 | 1019.1 |
| 20260901211518 | 69 | 15 | 1.7 | 6.1 | 0.00 | 0.00 | 0.00 | 72 | 1019.0 |
| 20260901211503 | 69 | 13 | 3.5 | 6.1 | 0.00 | 0.00 | 0.00 | 72 | 1019.1 |
| 20260901211403 | 69 | 16 | 0.9 | 3.5 | 0.00 | 0.00 | 0.00 | 71 | 1018.9 |
| 20260901211203 | 69 | 11 | 0.9 | 3.5 | 0.00 | 0.00 | 0.00 | 72 | 1019.1 |
| 20260901211103 | 69 | 20 | 1.7 | 3.5 | 0.00 | 0.00 | 0.00 | 71 | 1019.1 |
| 20260901211003 | 69 | 15 | 1.7 | 3.5 | 0.00 | 0.00 | 0.00 | 71 | 1019.0 |
| 20260901210903 | 69 | 22 | 1.7 | 3.5 | 0.00 | 0.00 | 0.00 | 71 | 1019.2 |
| 20260901210803 | 70 | 11 | 0.9 | 3.5 | 0.00 | 0.00 | 0.00 | 71 | 1019.2 |
| 20260901210703 | 69 | 26 | 1.7 | 3.5 | 0.00 | 0.00 | 0.00 | 71 | 1019.0 |
| 20260901210603 | 70 | 40 | 1.7 | 5.2 | 0.00 | 0.00 | 0.00 | 71 | 1019.1 |
| 20260901210518 | 70 | 52 | 0.9 | 6.1 | 0.00 | 0.00 | 0.00 | 71 | 1019.0 |
| 20260901210503 | 70 | 55 | 0.9 | 6.1 | 0.00 | 0.00 | 0.00 | 71 | 1019.0 |
| 20260901210403 | 70 | 59 | 0.9 | 6.1 | 0.00 | 0.00 | 0.00 | 71 | 1019.1 |
| 20260901210203 | 70 | 80 | 2.6 | 6.1 | 0.00 | 0.00 | 0.00 | 71 | 1019.1 |
| 20260901210003 | 70 | 75 | 3.5 | 6.1 | 0.00 | 0.00 | 0.00 | 70 | 1019.1 |
| 20260901205918 | 70 | 57 | 2.6 | 7.0 | 0.00 | 0.00 | 0.00 | 70 | 1019.0 |
| 20260901205903 | 70 | 49 | 1.7 | 7.0 | 0.00 | 0.00 | 0.00 | 70 | 1018.9 |
| 20260901205803 | 70 | 17 | 3.5 | 7.0 | 0.00 | 0.00 | 0.00 | 69 | 1018.9 |
| 20260901205603 | 70 | 9 | 3.5 | 7.0 | 0.00 | 0.00 | 0.00 | 69 | 1019.1 |
| 20260901205503 | 70 | 16 | 3.5 | 7.0 | 0.00 | 0.00 | 0.00 | 69 | 1019.0 |
| 20260901205403 | 70 | 37 | 3.5 | 7.0 | 0.00 | 0.00 | 0.00 | 69 | 1019.2 |
| 20260901205306 | 70 | 47 | 3.5 | 7.0 | 0.00 | 0.00 | 0.00 | 69 | 1018.9 |
| 20260901205203 | 71 | 56 | 0.9 | 5.2 | 0.00 | 0.00 | 0.00 | 69 | 1018.9 |
| 20260901205103 | 70 | 66 | 2.6 | 5.2 | 0.00 | 0.00 | 0.00 | 69 | 1019.3 |
| 20260901205003 | 70 | 73 | 1.7 | 5.2 | 0.00 | 0.00 | 0.00 | 69 | 1018.8 |
| 20260901204903 | 70 | 82 | 2.6 | 5.2 | 0.00 | 0.00 | 0.00 | 68 | 1018.9 |
| 20260901204803 | 70 | 95 | 2.6 | 5.2 | 0.00 | 0.00 | 0.00 | 68 | 1019.2 |
| 20260901204703 | 71 | 104 | 2.6 | 5.2 | 0.00 | 0.00 | 0.00 | 68 | 1019.3 |
| 20260901204617 | 71 | 95 | 2.6 | 5.2 | 0.00 | 0.00 | 0.00 | 68 | 1019.1 |
| 20260901204603 | 71 | 92 | 2.6 | 5.2 | 0.00 | 0.00 | 0.00 | 68 | 1019.1 |
| 20260901204503 | 71 | 87 | 2.6 | 3.5 | 0.00 | 0.00 | 0.00 | 68 | 1019.1 |
| 20260901204303 | 71 | 81 | 1.7 | 3.5 | 0.00 | 0.00 | 0.00 | 69 | 1019.0 |
| 20260901204203 | 71 | 66 | 1.7 | 3.5 | 0.00 | 0.00 | 0.00 | 69 | 1019.1 |
| 20260901204103 | 71 | 56 | 0.9 | 6.1 | 0.00 | 0.00 | 0.00 | 69 | 1019.1 |
| 20260901204003 | 71 | 41 | 2.6 | 6.1 | 0.00 | 0.00 | 0.00 | 69 | 1019.0 |
| 20260901203903 | 71 | 29 | 1.7 | 6.1 | 0.00 | 0.00 | 0.00 | 70 | 1019.1 |
| 20260901203803 | 70 | 18 | 1.7 | 6.1 | 0.00 | 0.00 | 0.00 | 71 | 1019.0 |
| 20260901203703 | 70 | 14 | 2.6 | 6.1 | 0.00 | 0.00 | 0.00 | 70 | 1019.0 |
| 20260901203603 | 70 | 20 | 3.5 | 6.1 | 0.00 | 0.00 | 0.00 | 70 | 1019.0 |
| 20260901203505 | 71 | 29 | 2.6 | 5.2 | 0.00 | 0.00 | 0.00 | 69 | 1019.0 |
| 20260901203403 | 71 | 27 | 1.7 | 6.1 | 0.00 | 0.00 | 0.00 | 70 | 1019.2 |
| 20260901203303 | 71 | 22 | 1.7 | 6.1 | 0.00 | 0.00 | 0.00 | 70 | 1018.9 |
| 20260901203203 | 71 | 22 | 3.5 | 6.1 | 0.00 | 0.00 | 0.00 | 70 | 1018.8 |
| 20260901203118 | 71 | 21 | 1.7 | 6.1 | 0.00 | 0.00 | 0.00 | 70 | 1019.1 |
| 20260901203103 | 71 | 20 | 0.9 | 6.1 | 0.00 | 0.00 | 0.00 | 70 | 1018.8 |
| 20260901203003 | 71 | 19 | 1.7 | 6.1 | 0.00 | 0.00 | 0.00 | 70 | 1018.9 |
| 20260901202803 | 71 | 53 | 1.7 | 5.2 | 0.00 | 0.00 | 0.00 | 69 | 1018.9 |
| 20260901202703 | 71 | 49 | 2.6 | 5.2 | 0.00 | 0.00 | 0.00 | 68 | 1018.9 |
| 20260901202603 | 71 | 39 | 1.7 | 5.2 | 0.00 | 0.00 | 0.00 | 68 | 1018.9 |
| 20260901202503 | 71 | 32 | 1.7 | 5.2 | 0.00 | 0.00 | 0.00 | 67 | 1018.9 |
| 20260901202416 | 72 | 14 | 1.7 | 5.2 | 0.00 | 0.00 | 0.00 | 67 | 1018.9 |
| 20260901202403 | 72 | 357 | 1.7 | 5.2 | 0.00 | 0.00 | 0.00 | 67 | 1018.9 |
| 20260901202306 | 72 | 323 | 1.7 | 3.5 | 0.00 | 0.00 | 0.00 | 67 | 1018.8 |
| 20260901202218 | 72 | 318 | 1.7 | 3.5 | 0.00 | 0.00 | 0.00 | 67 | 1018.7 |
| 20260901202103 | 72 | 313 | 0.0 | 3.5 | 0.00 | 0.00 | 0.00 | 67 | 1019.2 |
| 20260901202017 | 72 | 321 | 0.9 | 3.5 | 0.00 | 0.00 | 0.00 | 67 | 1019.1 |
| 20260901201917 | 71 | 340 | 1.7 | 3.5 | 0.00 | 0.00 | 0.00 | 67 | 1019.0 |
| 20260901201903 | 72 | 347 | 1.7 | 3.5 | 0.00 | 0.00 | 0.00 | 67 | 1019.0 |
| 20260901201603 | 72 | 64 | 1.7 | 5.2 | 0.00 | 0.00 | 0.00 | 65 | 1018.9 |
| 20260901201503 | 72 | 70 | 1.7 | 5.2 | 0.00 | 0.00 | 0.00 | 65 | 1019.0 |
| 20260901201403 | 73 | 75 | 1.7 | 5.2 | 0.00 | 0.00 | 0.00 | 65 | 1018.7 |
| 20260901201303 | 72 | 49 | 2.6 | 5.2 | 0.00 | 0.00 | 0.00 | 65 | 1018.9 |
| 20260901201203 | 73 | 31 | 2.6 | 5.2 | 0.00 | 0.00 | 0.00 | 65 | 1019.0 |
| 20260901201103 | 73 | 14 | 1.7 | 3.5 | 0.00 | 0.00 | 0.00 | 65 | 1019.0 |
| 20260901201003 | 73 | 356 | 0.9 | 3.5 | 0.00 | 0.00 | 0.00 | 66 | 1019.1 |
| 20260901200903 | 72 | 356 | 0.9 | 3.5 | 0.00 | 0.00 | 0.00 | 67 | 1019.2 |
| 20260901200803 | 72 | 348 | 1.7 | 3.5 | 0.00 | 0.00 | 0.00 | 66 | 1018.9 |
| 20260901200707 | 72 | 354 | 1.7 | 5.2 | 0.00 | 0.00 | 0.00 | 68 | 1018.9 |
| 20260901200603 | 71 | 351 | 0.9 | 5.2 | 0.00 | 0.00 | 0.00 | 68 | 1019.0 |
| 20260901200503 | 71 | 346 | 0.9 | 5.2 | 0.00 | 0.00 | 0.00 | 68 | 1019.0 |
| 20260901200403 | 70 | 346 | 1.7 | 5.2 | 0.00 | 0.00 | 0.00 | 69 | 1019.0 |
| 20260901200303 | 71 | 356 | 3.5 | 5.2 | 0.00 | 0.00 | 0.00 | 68 | 1018.9 |
| 20260901200203 | 71 | 351 | 1.7 | 5.2 | 0.00 | 0.00 | 0.00 | 68 | 1019.1 |
| 20260901200003 | 71 | 358 | 1.7 | 5.2 | 0.00 | 0.00 | 0.00 | 66 | 1018.8 |
| 20260901195903 | 71 | 356 | 1.7 | 5.2 | 0.00 | 0.00 | 0.00 | 66 | 1019.1 |
| 20260901195803 | 71 | 357 | 1.7 | 5.2 | 0.00 | 0.00 | 0.00 | 66 | 1019.1 |
| 20260901195703 | 72 | 9 | 1.7 | 3.5 | 0.00 | 0.00 | 0.00 | 66 | 1019.0 |
| 20260901195603 | 71 | 22 | 1.7 | 3.5 | 0.00 | 0.00 | 0.00 | 66 | 1019.0 |
| 20260901195518 | 71 | 38 | 3.5 | 3.5 | 0.00 | 0.00 | 0.00 | 65 | 1019.1 |
| 20260901195508 | 72 | 47 | 1.7 | 1.7 | 0.00 | 0.00 | 0.00 | 64 | 1019.0 |
| 20260901195403 | 73 | 66 | 1.7 | 1.7 | 0.00 | 0.00 | 0.00 | 63 | 1019.1 |
| 20260901195203 | 74 | 67 | 0.0 | 3.5 | 0.00 | 0.00 | 0.00 | 63 | 1019.0 |
| 20260901195118 | 74 | 67 | 0.9 | 3.5 | 0.00 | 0.00 | 0.00 | 62 | 1019.1 |
| 20260901195103 | 74 | 68 | 0.9 | 3.5 | 0.00 | 0.00 | 0.00 | 63 | 1019.2 |
| 20260901195003 | 73 | 70 | 0.9 | 3.5 | 0.00 | 0.00 | 0.00 | 64 | 1019.2 |
| 20260901194803 | 73 | 76 | 0.9 | 3.5 | 0.00 | 0.00 | 0.00 | 65 | 1019.3 |
| 20260901194703 | 73 | 86 | 1.7 | 3.5 | 0.00 | 0.00 | 0.00 | 64 | 1019.2 |
| 20260901194603 | 73 | 87 | 0.0 | 3.5 | 0.00 | 0.00 | 0.00 | 64 | 1019.0 |
| 20260901194503 | 73 | 81 | 0.0 | 3.5 | 0.00 | 0.00 | 0.00 | 64 | 1019.1 |
| 20260901194403 | 73 | 79 | 0.9 | 3.5 | 0.00 | 0.00 | 0.00 | 65 | 1019.0 |
| 20260901194304 | 72 | 54 | 1.7 | 3.5 | 0.00 | 0.00 | 0.00 | 64 | 1019.3 |
| 20260901194203 | 72 | 27 | 1.7 | 3.5 | 0.00 | 0.00 | 0.00 | 65 | 1019.0 |
| 20260901194104 | 72 | 21 | 1.7 | 3.5 | 0.00 | 0.00 | 0.00 | 65 | 1019.3 |
| 20260901194003 | 72 | 15 | 1.7 | 3.5 | 0.00 | 0.00 | 0.00 | 65 | 1019.2 |
| 20260901193903 | 72 | 10 | 1.7 | 3.5 | 0.00 | 0.00 | 0.00 | 64 | 1019.1 |
| 20260901193803 | 72 | 32 | 2.6 | 3.5 | 0.00 | 0.00 | 0.00 | 63 | 1019.1 |
| 20260901193718 | 74 | 58 | 1.7 | 3.5 | 0.00 | 0.00 | 0.00 | 61 | 1019.0 |
| 20260901193703 | 74 | 64 | 1.7 | 3.5 | 0.00 | 0.00 | 0.00 | 61 | 1019.0 |
| 20260901193603 | 75 | 70 | 0.0 | 3.5 | 0.00 | 0.00 | 0.00 | 61 | 1019.0 |
| 20260901193418 | 74 | 42 | 0.0 | 3.5 | 0.00 | 0.00 | 0.00 | 63 | 1019.0 |
| 20260901193303 | 74 | 29 | 0.9 | 3.5 | 0.00 | 0.00 | 0.00 | 64 | 1019.1 |
| 20260901193103 | 72 | 14 | 1.7 | 3.5 | 0.00 | 0.00 | 0.00 | 66 | 1019.2 |
| 20260901193003 | 72 | 25 | 1.7 | 3.5 | 0.00 | 0.00 | 0.00 | 66 | 1019.1 |
| 20260901192903 | 72 | 30 | 1.7 | 3.5 | 0.00 | 0.00 | 0.00 | 66 | 1019.2 |
| 20260901192803 | 72 | 35 | 1.7 | 3.5 | 0.00 | 0.00 | 0.00 | 66 | 1019.1 |
| 20260901192718 | 72 | 22 | 1.7 | 3.5 | 0.00 | 0.00 | 0.00 | 67 | 1019.1 |
| 20260901192703 | 72 | 25 | 1.7 | 3.5 | 0.00 | 0.00 | 0.00 | 67 | 1018.9 |
| 20260901192617 | 72 | 16 | 0.9 | 3.5 | 0.00 | 0.00 | 0.00 | 68 | 1018.9 |
| 20260901192603 | 72 | 13 | 0.9 | 3.5 | 0.00 | 0.00 | 0.00 | 68 | 1018.9 |
| 20260901192316 | 71 | 11 | 1.7 | 3.5 | 0.00 | 0.00 | 0.00 | 68 | 1019.3 |
| 20260901192306 | 71 | 12 | 2.6 | 3.5 | 0.00 | 0.00 | 0.00 | 68 | 1019.2 |
| 20260901192203 | 71 | 26 | 1.7 | 3.5 | 0.00 | 0.00 | 0.00 | 68 | 1019.1 |
| 20260901192003 | 71 | 41 | 1.7 | 5.2 | 0.00 | 0.00 | 0.00 | 69 | 1019.2 |
| 20260901191903 | 70 | 33 | 1.7 | 5.2 | 0.00 | 0.00 | 0.00 | 69 | 1019.2 |
| 20260901191818 | 71 | 46 | 1.7 | 5.2 | 0.00 | 0.00 | 0.00 | 69 | 1019.0 |
| 20260901191803 | 71 | 48 | 1.7 | 5.2 | 0.00 | 0.00 | 0.00 | 69 | 1019.0 |
| 20260901191703 | 71 | 56 | 1.7 | 5.2 | 0.00 | 0.00 | 0.00 | 68 | 1019.2 |
| 20260901191503 | 72 | 63 | 1.7 | 3.5 | 0.00 | 0.00 | 0.00 | 66 | 1019.1 |
| 20260901191403 | 73 | 85 | 2.6 | 3.5 | 0.00 | 0.00 | 0.00 | 65 | 1019.2 |
| 20260901191303 | 74 | 117 | 1.7 | 3.5 | 0.00 | 0.00 | 0.00 | 64 | 1019.2 |
| 20260901191203 | 74 | 215 | 0.9 | 3.5 | 0.00 | 0.00 | 0.00 | 64 | 1019.1 |
| 20260901191103 | 74 | 240 | 0.0 | 1.7 | 0.00 | 0.00 | 0.00 | 65 | 1019.0 |
| 20260901191018 | 73 | 237 | 0.0 | 1.7 | 0.00 | 0.00 | 0.00 | 66 | 1018.9 |
| 20260901191003 | 73 | 236 | 0.0 | 1.7 | 0.00 | 0.00 | 0.00 | 66 | 1018.9 |
| 20260901190903 | 73 | 323 | 0.9 | 3.5 | 0.00 | 0.00 | 0.00 | 64 | 1018.9 |
| 20260901190718 | 74 | 54 | 0.0 | 3.5 | 0.00 | 0.00 | 0.00 | 64 | 1019.0 |
| 20260901190703 | 74 | 57 | 0.0 | 3.5 | 0.00 | 0.00 | 0.00 | 65 | 1019.2 |
| 20260901190603 | 73 | 63 | 0.0 | 3.5 | 0.00 | 0.00 | 0.00 | 65 | 1019.0 |
| 20260901190418 | 72 | 45 | 1.7 | 3.5 | 0.00 | 0.00 | 0.00 | 66 | 1019.0 |
| 20260901190403 | 72 | 48 | 1.7 | 3.5 | 0.00 | 0.00 | 0.00 | 66 | 1019.0 |
| 20260901190303 | 72 | 23 | 1.7 | 3.5 | 0.00 | 0.00 | 0.00 | 67 | 1019.0 |
| 20260901190003 | 72 | 351 | 1.7 | 3.5 | 0.00 | 0.00 | 0.00 | 67 | 1019.0 |
| 20260901185817 | 71 | 338 | 1.7 | 3.5 | 0.00 | 0.00 | 0.00 | 68 | 1019.2 |
| 20260901185803 | 71 | 339 | 1.7 | 3.5 | 0.00 | 0.00 | 0.00 | 68 | 1019.2 |
| 20260901185703 | 71 | 334 | 1.7 | 3.5 | 0.00 | 0.00 | 0.00 | 68 | 1018.9 |
| 20260901185503 | 72 | 312 | 0.9 | 3.5 | 0.00 | 0.00 | 0.00 | 68 | 1019.1 |
| 20260901185403 | 71 | 317 | 2.6 | 3.5 | 0.00 | 0.00 | 0.00 | 67 | 1019.1 |
| 20260901185316 | 72 | 324 | 1.7 | 3.5 | 0.00 | 0.00 | 0.00 | 66 | 1019.0 |
| 20260901185305 | 72 | 326 | 1.7 | 3.5 | 0.00 | 0.00 | 0.00 | 66 | 1019.0 |
| 20260901185203 | 72 | 343 | 1.7 | 3.5 | 0.00 | 0.00 | 0.00 | 67 | 1019.4 |
| 20260901185118 | 72 | 357 | 1.7 | 3.5 | 0.00 | 0.00 | 0.00 | 67 | 1019.1 |
| 20260901185003 | 72 | 3 | 1.7 | 6.1 | 0.00 | 0.00 | 0.00 | 67 | 1019.1 |
| 20260901184917 | 72 | 2 | 1.7 | 6.1 | 0.00 | 0.00 | 0.00 | 67 | 1019.1 |
| 20260901184803 | 72 | 346 | 1.7 | 6.1 | 0.00 | 0.00 | 0.00 | 68 | 1019.1 |
| 20260901184603 | 71 | 338 | 1.7 | 6.1 | 0.00 | 0.00 | 0.00 | 67 | 1019.1 |
| 20260901184503 | 71 | 343 | 3.5 | 6.1 | 0.00 | 0.00 | 0.00 | 67 | 1019.1 |
| 20260901184403 | 71 | 358 | 3.5 | 5.2 | 0.00 | 0.00 | 0.00 | 66 | 1019.1 |
| 20260901184303 | 72 | 24 | 0.9 | 5.2 | 0.00 | 0.00 | 0.00 | 67 | 1019.0 |
| 20260901184203 | 71 | 15 | 1.7 | 5.2 | 0.00 | 0.00 | 0.00 | 67 | 1019.1 |
| 20260901184103 | 71 | 21 | 2.6 | 5.2 | 0.00 | 0.00 | 0.00 | 67 | 1019.0 |
| 20260901184003 | 72 | 7 | 1.7 | 5.2 | 0.00 | 0.00 | 0.00 | 67 | 1019.1 |
| 20260901183903 | 71 | 355 | 2.6 | 5.2 | 0.00 | 0.00 | 0.00 | 67 | 1019.1 |
| 20260901183803 | 71 | 348 | 2.6 | 5.2 | 0.00 | 0.00 | 0.00 | 66 | 1018.9 |
| 20260901183703 | 72 | 12 | 1.7 | 5.2 | 0.00 | 0.00 | 0.00 | 66 | 1019.0 |
| 20260901183603 | 72 | 31 | 1.7 | 5.2 | 0.00 | 0.00 | 0.00 | 66 | 1018.9 |
| 20260901183517 | 72 | 63 | 1.7 | 5.2 | 0.00 | 0.00 | 0.00 | 66 | 1019.0 |
| 20260901183503 | 72 | 76 | 1.7 | 5.2 | 0.00 | 0.00 | 0.00 | 66 | 1018.9 |
| 20260901183403 | 72 | 109 | 1.7 | 5.2 | 0.00 | 0.00 | 0.00 | 65 | 1018.9 |
| 20260901183318 | 72 | 115 | 2.6 | 3.5 | 0.00 | 0.00 | 0.00 | 65 | 1018.8 |
| 20260901183203 | 72 | 108 | 2.6 | 3.5 | 0.00 | 0.00 | 0.00 | 65 | 1019.0 |
| 20260901183003 | 72 | 28 | 0.9 | 3.5 | 0.00 | 0.00 | 0.00 | 65 | 1019.2 |
| 20260901182903 | 72 | 6 | 1.7 | 6.1 | 0.00 | 0.00 | 0.00 | 66 | 1019.0 |
| 20260901182803 | 72 | 3 | 1.7 | 6.1 | 0.00 | 0.00 | 0.00 | 66 | 1019.2 |
| 20260901182703 | 71 | 352 | 1.7 | 6.1 | 0.00 | 0.00 | 0.00 | 67 | 1019.2 |
| 20260901182603 | 71 | 350 | 1.7 | 6.1 | 0.00 | 0.00 | 0.00 | 67 | 1019.1 |
| 20260901182503 | 71 | 337 | 2.6 | 6.1 | 0.00 | 0.00 | 0.00 | 67 | 1019.1 |
| 20260901182403 | 70 | 339 | 3.5 | 6.1 | 0.00 | 0.00 | 0.00 | 67 | 1019.1 |
| 20260901182305 | 71 | 275 | 2.6 | 5.2 | 0.00 | 0.00 | 0.00 | 65 | 1019.4 |
| 20260901182217 | 73 | 207 | 1.7 | 5.2 | 0.00 | 0.00 | 0.00 | 64 | 1019.1 |
| 20260901182203 | 73 | 204 | 1.7 | 5.2 | 0.00 | 0.00 | 0.00 | 64 | 1019.1 |
| 20260901182103 | 73 | 211 | 0.9 | 5.2 | 0.00 | 0.00 | 0.00 | 64 | 1019.3 |
| 20260901181903 | 73 | 217 | 1.7 | 5.2 | 0.00 | 0.00 | 0.00 | 63 | 1019.0 |
| 20260901181803 | 73 | 226 | 2.6 | 5.2 | 0.00 | 0.00 | 0.00 | 62 | 1019.1 |
| 20260901181703 | 74 | 342 | 1.7 | 5.2 | 0.00 | 0.00 | 0.00 | 63 | 1019.0 |
| 20260901181603 | 74 | 36 | 1.7 | 3.5 | 0.00 | 0.00 | 0.00 | 63 | 1019.0 |
| 20260901181503 | 73 | 22 | 0.0 | 3.5 | 0.00 | 0.00 | 0.00 | 64 | 1019.3 |
| 20260901181403 | 72 | 19 | 0.9 | 3.5 | 0.00 | 0.00 | 0.00 | 65 | 1019.1 |
| 20260901181303 | 72 | 11 | 0.0 | 3.5 | 0.00 | 0.00 | 0.00 | 65 | 1019.3 |
| 20260901181217 | 72 | 11 | 1.7 | 3.5 | 0.00 | 0.00 | 0.00 | 65 | 1019.1 |
| 20260901181203 | 72 | 13 | 1.7 | 3.5 | 0.00 | 0.00 | 0.00 | 65 | 1019.1 |
| 20260901181117 | 72 | 15 | 1.7 | 3.5 | 0.00 | 0.00 | 0.00 | 64 | 1019.4 |
| 20260901181103 | 72 | 14 | 1.7 | 3.5 | 0.00 | 0.00 | 0.00 | 64 | 1019.3 |
| 20260901180803 | 75 | 28 | 0.0 | 3.5 | 0.00 | 0.00 | 0.00 | 62 | 1019.1 |
| 20260901180718 | 74 | 27 | 0.0 | 3.5 | 0.00 | 0.00 | 0.00 | 63 | 1019.1 |
| 20260901180703 | 73 | 27 | 1.7 | 3.5 | 0.00 | 0.00 | 0.00 | 63 | 1019.2 |
| 20260901180603 | 73 | 20 | 1.7 | 3.5 | 0.00 | 0.00 | 0.00 | 63 | 1019.4 |
| 20260901180405 | 72 | 360 | 0.9 | 3.5 | 0.00 | 0.00 | 0.00 | 64 | 1019.3 |
| 20260901180303 | 72 | 4 | 0.9 | 3.5 | 0.00 | 0.00 | 0.00 | 64 | 1019.2 |
| 20260901180203 | 72 | 337 | 0.9 | 3.5 | 0.00 | 0.00 | 0.00 | 65 | 1019.3 |
| 20260901180103 | 72 | 323 | 0.9 | 3.5 | 0.00 | 0.00 | 0.00 | 65 | 1019.1 |
| 20260901180003 | 71 | 323 | 0.0 | 3.5 | 0.00 | 0.00 | 0.00 | 65 | 1019.4 |
| 20260901175903 | 71 | 324 | 0.9 | 3.5 | 0.00 | 0.00 | 0.00 | 66 | 1019.3 |
| 20260901175817 | 70 | 328 | 1.7 | 3.5 | 0.00 | 0.00 | 0.00 | 66 | 1019.3 |
| 20260901175803 | 70 | 332 | 1.7 | 3.5 | 0.00 | 0.00 | 0.00 | 66 | 1019.3 |
| 20260901175704 | 70 | 337 | 1.7 | 3.5 | 0.00 | 0.00 | 0.00 | 66 | 1019.4 |
| 20260901175503 | 71 | 330 | 1.7 | 5.2 | 0.00 | 0.00 | 0.00 | 65 | 1019.3 |
| 20260901175403 | 71 | 327 | 1.7 | 5.2 | 0.00 | 0.00 | 0.00 | 65 | 1019.5 |
| 20260901175305 | 71 | 323 | 1.7 | 5.2 | 0.00 | 0.00 | 0.00 | 66 | 1019.4 |
| 20260901175205 | 70 | 323 | 3.5 | 5.2 | 0.00 | 0.00 | 0.00 | 66 | 1019.4 |
| 20260901175103 | 71 | 3 | 2.6 | 5.2 | 0.00 | 0.00 | 0.00 | 64 | 1019.4 |
| 20260901175003 | 71 | 68 | 2.6 | 3.5 | 0.00 | 0.00 | 0.00 | 63 | 1019.6 |
| 20260901174918 | 73 | 94 | 0.9 | 3.5 | 0.00 | 0.00 | 0.00 | 62 | 1019.7 |
| 20260901174903 | 73 | 101 | 0.9 | 3.5 | 0.00 | 0.00 | 0.00 | 62 | 1019.7 |
| 20260901174803 | 73 | 91 | 0.0 | 3.5 | 0.00 | 0.00 | 0.00 | 63 | 1019.6 |
| 20260901174603 | 74 | 40 | 0.9 | 3.5 | 0.00 | 0.00 | 0.00 | 61 | 1019.6 |
| 20260901174503 | 73 | 351 | 0.0 | 3.5 | 0.00 | 0.00 | 0.00 | 62 | 1019.7 |
| 20260901174403 | 73 | 351 | 0.9 | 3.5 | 0.00 | 0.00 | 0.00 | 62 | 1019.6 |
| 20260901174303 | 72 | 2 | 0.0 | 3.5 | 0.00 | 0.00 | 0.00 | 64 | 1019.5 |
| 20260901174203 | 72 | 15 | 0.0 | 3.5 | 0.00 | 0.00 | 0.00 | 65 | 1019.4 |
| 20260901174103 | 71 | 32 | 1.7 | 3.5 | 0.00 | 0.00 | 0.00 | 65 | 1019.8 |
| 20260901174003 | 71 | 54 | 2.6 | 3.5 | 0.00 | 0.00 | 0.00 | 64 | 1019.8 |
| 20260901173903 | 73 | 89 | 0.9 | 3.5 | 0.00 | 0.00 | 0.00 | 62 | 1019.7 |
| 20260901173803 | 73 | 89 | 0.9 | 3.5 | 0.00 | 0.00 | 0.00 | 62 | 1019.8 |
| 20260901173718 | 73 | 81 | 1.7 | 3.5 | 0.00 | 0.00 | 0.00 | 62 | 1019.8 |
| 20260901173703 | 73 | 66 | 1.7 | 3.5 | 0.00 | 0.00 | 0.00 | 62 | 1019.8 |
| 20260901173618 | 73 | 21 | 0.9 | 1.7 | 0.00 | 0.00 | 0.00 | 62 | 1019.5 |
| 20260901173303 | 72 | 345 | 0.0 | 5.2 | 0.00 | 0.00 | 0.00 | 64 | 1019.8 |
| 20260901173203 | 72 | 4 | 0.0 | 5.2 | 0.00 | 0.00 | 0.00 | 65 | 1019.9 |
| 20260901173117 | 71 | 12 | 0.9 | 5.2 | 0.00 | 0.00 | 0.00 | 65 | 1019.7 |
| 20260901173103 | 71 | 9 | 0.9 | 5.2 | 0.00 | 0.00 | 0.00 | 66 | 1019.9 |
| 20260901173003 | 71 | 352 | 2.6 | 5.2 | 0.00 | 0.00 | 0.00 | 65 | 1019.8 |
| 20260901172803 | 71 | 88 | 1.7 | 3.5 | 0.00 | 0.00 | 0.00 | 65 | 1019.8 |
| 20260901172703 | 71 | 137 | 0.9 | 3.5 | 0.00 | 0.00 | 0.00 | 66 | 1019.9 |
| 20260901172603 | 71 | 127 | 1.7 | 3.5 | 0.00 | 0.00 | 0.00 | 65 | 1020.1 |
| 20260901172503 | 71 | 68 | 0.9 | 3.5 | 0.00 | 0.00 | 0.00 | 63 | 1019.9 |
| 20260901172403 | 72 | 62 | 1.7 | 3.5 | 0.00 | 0.00 | 0.00 | 64 | 1020.0 |
| 20260901172305 | 72 | 38 | 0.9 | 3.5 | 0.00 | 0.00 | 0.00 | 65 | 1019.7 |
| 20260901172203 | 72 | 33 | 0.9 | 6.1 | 0.00 | 0.00 | 0.00 | 66 | 1020.0 |
| 20260901172103 | 71 | 30 | 0.9 | 6.1 | 0.00 | 0.00 | 0.00 | 68 | 1020.0 |
| 20260901172003 | 70 | 27 | 1.7 | 6.1 | 0.00 | 0.00 | 0.00 | 68 | 1019.9 |
| 20260901171903 | 70 | 18 | 1.7 | 6.1 | 0.00 | 0.00 | 0.00 | 67 | 1019.9 |
| 20260901171803 | 71 | 30 | 1.7 | 6.1 | 0.00 | 0.00 | 0.00 | 67 | 1019.8 |
| 20260901171703 | 71 | 20 | 3.5 | 6.1 | 0.00 | 0.00 | 0.00 | 64 | 1019.8 |
| 20260901171618 | 72 | 20 | 1.7 | 6.1 | 0.00 | 0.00 | 0.00 | 64 | 1019.6 |
| 20260901171603 | 72 | 23 | 1.7 | 6.1 | 0.00 | 0.00 | 0.00 | 64 | 1019.6 |
| 20260901171503 | 73 | 28 | 0.9 | 3.5 | 0.00 | 0.00 | 0.00 | 63 | 1019.7 |
| 20260901171303 | 72 | 16 | 1.7 | 3.5 | 0.00 | 0.00 | 0.00 | 65 | 1019.8 |
| 20260901171203 | 72 | 31 | 0.0 | 3.5 | 0.00 | 0.00 | 0.00 | 67 | 1020.0 |
| 20260901171103 | 70 | 36 | 1.7 | 3.5 | 0.00 | 0.00 | 0.00 | 68 | 1019.9 |
| 20260901171003 | 70 | 34 | 0.0 | 3.5 | 0.00 | 0.00 | 0.00 | 69 | 1020.0 |
| 20260901170903 | 69 | 38 | 0.9 | 3.5 | 0.00 | 0.00 | 0.00 | 69 | 1020.0 |
| 20260901170803 | 69 | 40 | 1.7 | 3.5 | 0.00 | 0.00 | 0.00 | 69 | 1020.0 |
| 20260901170703 | 70 | 51 | 1.7 | 3.5 | 0.00 | 0.00 | 0.00 | 69 | 1019.9 |
| 20260901170603 | 70 | 61 | 1.7 | 3.5 | 0.00 | 0.00 | 0.00 | 68 | 1020.2 |
| 20260901170503 | 70 | 92 | 1.7 | 3.5 | 0.00 | 0.00 | 0.00 | 68 | 1020.0 |
| 20260901170417 | 70 | 90 | 1.7 | 3.5 | 0.00 | 0.00 | 0.00 | 68 | 1020.2 |
| 20260901170403 | 70 | 89 | 1.7 | 3.5 | 0.00 | 0.00 | 0.00 | 68 | 1020.2 |
| 20260901170303 | 70 | 120 | 1.7 | 3.5 | 0.00 | 0.00 | 0.00 | 68 | 1019.9 |
| 20260901170003 | 70 | 63 | 1.7 | 3.5 | 0.00 | 0.00 | 0.00 | 67 | 1020.0 |
| 20260901165918 | 71 | 88 | 1.7 | 3.5 | 0.00 | 0.00 | 0.00 | 65 | 1020.3 |
| 20260901165903 | 72 | 90 | 1.7 | 3.5 | 0.00 | 0.00 | 0.00 | 66 | 1020.0 |
| 20260901165803 | 72 | 79 | 1.7 | 3.5 | 0.00 | 0.00 | 0.00 | 66 | 1020.2 |
| 20260901165603 | 70 | 94 | 1.7 | 3.5 | 0.00 | 0.00 | 0.00 | 67 | 1020.3 |
| 20260901165503 | 70 | 99 | 1.7 | 5.2 | 0.00 | 0.00 | 0.00 | 67 | 1020.4 |
| 20260901165417 | 70 | 100 | 1.7 | 6.1 | 0.00 | 0.00 | 0.00 | 67 | 1020.3 |
| 20260901165403 | 70 | 99 | 1.7 | 6.1 | 0.00 | 0.00 | 0.00 | 67 | 1020.3 |
| 20260901165318 | 71 | 99 | 2.6 | 6.1 | 0.00 | 0.00 | 0.00 | 65 | 1020.6 |
| 20260901165306 | 71 | 95 | 2.6 | 6.1 | 0.00 | 0.00 | 0.00 | 65 | 1020.6 |
| 20260901165218 | 71 | 94 | 1.7 | 6.1 | 0.00 | 0.00 | 0.00 | 66 | 1020.3 |
| 20260901164903 | 70 | 82 | 2.6 | 6.1 | 0.00 | 0.00 | 0.00 | 67 | 1020.3 |
| 20260901164805 | 70 | 58 | 1.7 | 5.2 | 0.00 | 0.00 | 0.00 | 66 | 1020.3 |
| 20260901164703 | 71 | 342 | 1.7 | 3.5 | 0.00 | 0.00 | 0.00 | 67 | 1020.1 |
| 20260901164603 | 71 | 61 | 0.9 | 3.5 | 0.00 | 0.00 | 0.00 | 68 | 1020.4 |
| 20260901164503 | 71 | 76 | 0.0 | 3.5 | 0.00 | 0.00 | 0.00 | 70 | 1020.3 |
| 20260901164403 | 70 | 100 | 0.9 | 5.2 | 0.00 | 0.00 | 0.00 | 70 | 1020.4 |
| 20260901164303 | 68 | 106 | 1.7 | 5.2 | 0.00 | 0.00 | 0.00 | 70 | 1020.4 |
| 20260901164218 | 69 | 99 | 2.6 | 5.2 | 0.00 | 0.00 | 0.00 | 69 | 1020.7 |
| 20260901164203 | 69 | 100 | 2.6 | 5.2 | 0.00 | 0.00 | 0.00 | 69 | 1020.7 |
| 20260901164119 | 70 | 107 | 1.7 | 5.2 | 0.00 | 0.00 | 0.00 | 69 | 1020.5 |
| 20260901164103 | 70 | 110 | 1.7 | 5.2 | 0.00 | 0.00 | 0.00 | 69 | 1020.5 |
| 20260901164018 | 70 | 106 | 1.7 | 5.2 | 0.00 | 0.00 | 0.00 | 69 | 1020.4 |
| 20260901163717 | 71 | 118 | 0.9 | 5.2 | 0.00 | 0.00 | 0.00 | 68 | 1020.5 |
| 20260901163703 | 71 | 125 | 0.9 | 5.2 | 0.00 | 0.00 | 0.00 | 68 | 1020.5 |
| 20260901163618 | 71 | 133 | 0.9 | 5.2 | 0.00 | 0.00 | 0.00 | 69 | 1020.6 |
| 20260901163603 | 71 | 138 | 0.9 | 5.2 | 0.00 | 0.00 | 0.00 | 69 | 1020.6 |
| 20260901163303 | 69 | 89 | 2.6 | 5.2 | 0.00 | 0.00 | 0.00 | 69 | 1020.6 |
| 20260901163203 | 70 | 88 | 1.7 | 3.5 | 0.00 | 0.00 | 0.00 | 70 | 1020.7 |
| 20260901163117 | 69 | 81 | 1.7 | 3.5 | 0.00 | 0.00 | 0.00 | 71 | 1020.4 |
| 20260901163105 | 69 | 74 | 1.7 | 6.1 | 0.00 | 0.00 | 0.00 | 70 | 1020.6 |
| 20260901163017 | 69 | 72 | 1.7 | 6.1 | 0.00 | 0.00 | 0.00 | 70 | 1020.5 |
| 20260901163003 | 69 | 74 | 1.7 | 6.1 | 0.00 | 0.00 | 0.00 | 70 | 1020.5 |
| 20260901162704 | 68 | 75 | 1.7 | 6.1 | 0.00 | 0.00 | 0.00 | 71 | 1020.8 |
| 20260901162618 | 68 | 75 | 3.5 | 6.1 | 0.00 | 0.00 | 0.00 | 70 | 1020.6 |
| 20260901162603 | 68 | 81 | 3.5 | 6.1 | 0.00 | 0.00 | 0.00 | 70 | 1020.6 |
| 20260901162503 | 69 | 96 | 1.7 | 3.5 | 0.00 | 0.00 | 0.00 | 70 | 1020.8 |
| 20260901162306 | 69 | 103 | 1.7 | 7.0 | 0.00 | 0.00 | 0.00 | 70 | 1020.7 |
| 20260901162203 | 69 | 92 | 1.7 | 7.0 | 0.00 | 0.00 | 0.00 | 70 | 1020.8 |
| 20260901162105 | 69 | 87 | 1.7 | 7.0 | 0.00 | 0.00 | 0.00 | 70 | 1020.7 |
| 20260901162003 | 69 | 81 | 0.9 | 7.0 | 0.00 | 0.00 | 0.00 | 70 | 1020.7 |
| 20260901161905 | 69 | 63 | 4.3 | 7.0 | 0.00 | 0.00 | 0.00 | 70 | 1020.8 |
| 20260901161803 | 69 | 49 | 1.7 | 3.5 | 0.00 | 0.00 | 0.00 | 71 | 1020.7 |
| 20260901161703 | 69 | 76 | 1.7 | 3.5 | 0.00 | 0.00 | 0.00 | 70 | 1020.5 |
| 20260901161603 | 69 | 81 | 1.7 | 3.5 | 0.00 | 0.00 | 0.00 | 70 | 1020.6 |
| 20260901161503 | 69 | 81 | 1.7 | 3.5 | 0.00 | 0.00 | 0.00 | 70 | 1020.8 |
| 20260901161403 | 70 | 90 | 1.7 | 3.5 | 0.00 | 0.00 | 0.00 | 68 | 1020.8 |
| 20260901161303 | 71 | 81 | 1.7 | 3.5 | 0.00 | 0.00 | 0.00 | 68 | 1020.8 |
| 20260901161203 | 70 | 86 | 1.7 | 3.5 | 0.00 | 0.00 | 0.00 | 69 | 1020.6 |
| 20260901161103 | 70 | 96 | 0.9 | 5.2 | 0.00 | 0.00 | 0.00 | 70 | 1020.8 |
| 20260901161003 | 69 | 98 | 1.7 | 5.2 | 0.00 | 0.00 | 0.00 | 69 | 1020.6 |
| 20260901160903 | 69 | 95 | 0.9 | 5.2 | 0.00 | 0.00 | 0.00 | 70 | 1020.9 |
| 20260901160818 | 69 | 101 | 1.7 | 5.2 | 0.00 | 0.00 | 0.00 | 70 | 1020.8 |
| 20260901160803 | 69 | 105 | 1.7 | 5.2 | 0.00 | 0.00 | 0.00 | 70 | 1020.8 |
| 20260901160703 | 70 | 101 | 1.7 | 5.2 | 0.00 | 0.00 | 0.00 | 70 | 1020.7 |
| 20260901160618 | 69 | 100 | 1.7 | 5.2 | 0.00 | 0.00 | 0.00 | 70 | 1020.8 |
| 20260901160503 | 69 | 109 | 1.7 | 6.1 | 0.00 | 0.00 | 0.00 | 70 | 1020.7 |
| 20260901160303 | 69 | 101 | 1.7 | 7.0 | 0.00 | 0.00 | 0.00 | 71 | 1020.9 |
| 20260901160203 | 68 | 98 | 1.7 | 7.0 | 0.00 | 0.00 | 0.00 | 71 | 1020.6 |
| 20260901160013 | 68 | 89 | 3.5 | 7.0 | 0.00 | 0.00 | 0.00 | 71 | 1020.9 |
| 20260901155903 | 68 | 78 | 2.6 | 7.0 | 0.00 | 0.00 | 0.00 | 71 | 1020.7 |
| 20260901155803 | 68 | 84 | 3.5 | 7.0 | 0.00 | 0.00 | 0.00 | 71 | 1020.6 |
| 20260901155703 | 69 | 77 | 1.7 | 5.2 | 0.00 | 0.00 | 0.00 | 71 | 1020.6 |
| 20260901155618 | 68 | 81 | 1.7 | 5.2 | 0.00 | 0.00 | 0.00 | 71 | 1020.8 |
| 20260901155603 | 68 | 82 | 1.7 | 5.2 | 0.00 | 0.00 | 0.00 | 71 | 1020.8 |
| 20260901155503 | 68 | 73 | 1.7 | 6.1 | 0.00 | 0.00 | 0.00 | 71 | 1020.7 |
| 20260901155419 | 68 | 82 | 1.7 | 6.1 | 0.00 | 0.00 | 0.00 | 70 | 1020.8 |
| 20260901155306 | 69 | 162 | 2.6 | 6.1 | 0.00 | 0.00 | 0.00 | 70 | 1020.6 |
| 20260901155218 | 69 | 182 | 1.7 | 6.1 | 0.00 | 0.00 | 0.00 | 70 | 1020.8 |
| 20260901155103 | 68 | 174 | 2.6 | 6.1 | 0.00 | 0.00 | 0.00 | 71 | 1020.7 |
| 20260901155017 | 68 | 144 | 3.5 | 6.1 | 0.00 | 0.00 | 0.00 | 69 | 1020.9 |
| 20260901154903 | 69 | 160 | 2.6 | 5.2 | 0.00 | 0.00 | 0.00 | 69 | 1020.8 |
| 20260901154717 | 69 | 94 | 1.7 | 6.1 | 0.00 | 0.00 | 0.00 | 71 | 1020.9 |
| 20260901154703 | 68 | 89 | 1.7 | 6.1 | 0.00 | 0.00 | 0.00 | 71 | 1020.8 |
| 20260901154603 | 68 | 83 | 0.9 | 6.1 | 0.00 | 0.00 | 0.00 | 72 | 1021.0 |
| 20260901154518 | 68 | 89 | 1.7 | 6.1 | 0.00 | 0.00 | 0.00 | 72 | 1020.9 |
| 20260901154403 | 68 | 98 | 1.7 | 6.1 | 0.00 | 0.00 | 0.00 | 72 | 1021.0 |
| 20260901154317 | 68 | 99 | 3.5 | 6.1 | 0.00 | 0.00 | 0.00 | 71 | 1020.9 |
| 20260901154218 | 69 | 99 | 1.7 | 6.1 | 0.00 | 0.00 | 0.00 | 71 | 1021.1 |
| 20260901154203 | 69 | 98 | 1.7 | 6.1 | 0.00 | 0.00 | 0.00 | 71 | 1021.1 |
| 20260901153903 | 67 | 78 | 1.7 | 7.8 | 0.00 | 0.00 | 0.00 | 72 | 1021.1 |
| 20260901153803 | 68 | 78 | 1.7 | 7.8 | 0.00 | 0.00 | 0.00 | 73 | 1021.0 |
| 20260901153703 | 67 | 80 | 1.7 | 7.8 | 0.00 | 0.00 | 0.00 | 73 | 1021.0 |
| 20260901153606 | 67 | 81 | 1.7 | 7.8 | 0.00 | 0.00 | 0.00 | 73 | 1021.0 |
| 20260901153505 | 67 | 79 | 2.6 | 7.8 | 0.00 | 0.00 | 0.00 | 74 | 1021.1 |
| 20260901153403 | 66 | 74 | 5.2 | 7.8 | 0.00 | 0.00 | 0.00 | 73 | 1021.1 |
| 20260901153303 | 67 | 70 | 2.6 | 6.1 | 0.00 | 0.00 | 0.00 | 72 | 1021.1 |
| 20260901153203 | 67 | 69 | 1.7 | 6.1 | 0.00 | 0.00 | 0.00 | 72 | 1021.4 |
| 20260901153103 | 67 | 78 | 1.7 | 6.1 | 0.00 | 0.00 | 0.00 | 73 | 1021.3 |
| 20260901153003 | 67 | 78 | 2.6 | 6.1 | 0.00 | 0.00 | 0.00 | 73 | 1021.4 |
| 20260901152903 | 67 | 75 | 2.6 | 7.0 | 0.00 | 0.00 | 0.00 | 73 | 1021.3 |
| 20260901152803 | 67 | 67 | 2.6 | 7.0 | 0.00 | 0.00 | 0.00 | 73 | 1021.3 |
| 20260901152717 | 66 | 59 | 0.9 | 7.0 | 0.00 | 0.00 | 0.00 | 74 | 1021.6 |
| 20260901152703 | 66 | 60 | 3.5 | 7.0 | 0.00 | 0.00 | 0.00 | 74 | 1021.5 |
| 20260901152603 | 66 | 57 | 1.7 | 7.0 | 0.00 | 0.00 | 0.00 | 73 | 1021.5 |
| 20260901152403 | 66 | 77 | 3.5 | 7.0 | 0.00 | 0.00 | 0.00 | 73 | 1021.4 |
| 20260901152305 | 66 | 89 | 2.6 | 5.2 | 0.00 | 0.00 | 0.00 | 72 | 1021.5 |
| 20260901152203 | 67 | 96 | 1.7 | 5.2 | 0.00 | 0.00 | 0.00 | 72 | 1021.6 |
| 20260901152103 | 67 | 81 | 1.7 | 5.2 | 0.00 | 0.00 | 0.00 | 72 | 1021.7 |
| 20260901152003 | 67 | 57 | 2.6 | 5.2 | 0.00 | 0.00 | 0.00 | 71 | 1021.7 |
| 20260901151903 | 67 | 46 | 1.7 | 5.2 | 0.00 | 0.00 | 0.00 | 72 | 1021.8 |
| 20260901151803 | 66 | 40 | 0.9 | 5.2 | 0.00 | 0.00 | 0.00 | 73 | 1021.6 |
| 20260901151703 | 66 | 34 | 1.7 | 5.2 | 0.00 | 0.00 | 0.00 | 73 | 1021.6 |
| 20260901151603 | 66 | 32 | 1.7 | 5.2 | 0.00 | 0.00 | 0.00 | 73 | 1021.7 |
| 20260901151503 | 66 | 39 | 2.6 | 5.2 | 0.00 | 0.00 | 0.00 | 72 | 1021.6 |
| 20260901151403 | 66 | 28 | 1.7 | 3.5 | 0.00 | 0.00 | 0.00 | 73 | 1021.8 |
| 20260901151303 | 66 | 34 | 1.7 | 3.5 | 0.00 | 0.00 | 0.00 | 73 | 1021.8 |
| 20260901151203 | 66 | 23 | 1.7 | 3.5 | 0.00 | 0.00 | 0.00 | 72 | 1021.6 |
| 20260901151103 | 66 | 56 | 0.9 | 7.0 | 0.00 | 0.00 | 0.00 | 74 | 1022.0 |
| 20260901151003 | 66 | 68 | 0.9 | 7.0 | 0.00 | 0.00 | 0.00 | 75 | 1021.6 |
| 20260901150903 | 65 | 71 | 2.6 | 7.0 | 0.00 | 0.00 | 0.00 | 74 | 1021.8 |
| 20260901150803 | 65 | 64 | 2.6 | 7.0 | 0.00 | 0.00 | 0.00 | 74 | 1021.7 |
| 20260901150703 | 65 | 71 | 1.7 | 7.0 | 0.00 | 0.00 | 0.00 | 75 | 1021.5 |
| 20260901150603 | 65 | 68 | 3.5 | 7.0 | 0.00 | 0.00 | 0.00 | 74 | 1021.8 |
| 20260901150503 | 65 | 57 | 3.5 | 7.0 | 0.00 | 0.00 | 0.00 | 74 | 1021.6 |
| 20260901150403 | 66 | 65 | 2.6 | 7.0 | 0.00 | 0.00 | 0.00 | 73 | 1021.7 |
| 20260901150303 | 65 | 84 | 4.3 | 7.0 | 0.00 | 0.00 | 0.00 | 73 | 1021.9 |
| 20260901150218 | 66 | 81 | 2.6 | 7.0 | 0.00 | 0.00 | 0.00 | 73 | 1021.8 |
| 20260901150203 | 66 | 79 | 2.6 | 7.0 | 0.00 | 0.00 | 0.00 | 73 | 1021.8 |
| 20260901150118 | 66 | 72 | 3.5 | 7.0 | 0.00 | 0.00 | 0.00 | 73 | 1021.7 |
| 20260901150103 | 66 | 70 | 3.5 | 7.0 | 0.00 | 0.00 | 0.00 | 73 | 1021.7 |
| 20260901145918 | 66 | 81 | 2.6 | 7.0 | 0.00 | 0.00 | 0.00 | 74 | 1021.8 |
| 20260901145803 | 65 | 57 | 2.6 | 7.0 | 0.00 | 0.00 | 0.00 | 74 | 1021.9 |
| 20260901145604 | 66 | 69 | 1.7 | 7.0 | 0.00 | 0.00 | 0.00 | 74 | 1021.7 |
| 20260901145503 | 65 | 60 | 4.3 | 7.0 | 0.00 | 0.00 | 0.00 | 74 | 1021.7 |
| 20260901145403 | 66 | 59 | 3.5 | 7.0 | 0.00 | 0.00 | 0.00 | 75 | 1021.8 |
| 20260901145306 | 65 | 64 | 3.5 | 6.1 | 0.00 | 0.00 | 0.00 | 74 | 1021.8 |
| 20260901145203 | 65 | 69 | 3.5 | 6.1 | 0.00 | 0.00 | 0.00 | 74 | 1021.8 |
| 20260901145118 | 65 | 69 | 2.6 | 6.1 | 0.00 | 0.00 | 0.00 | 73 | 1021.7 |
| 20260901145103 | 66 | 66 | 2.6 | 6.1 | 0.00 | 0.00 | 0.00 | 73 | 1021.7 |
| 20260901145003 | 66 | 62 | 3.5 | 6.1 | 0.00 | 0.00 | 0.00 | 73 | 1021.9 |
| 20260901144803 | 66 | 68 | 2.6 | 6.1 | 0.00 | 0.00 | 0.00 | 74 | 1021.8 |
| 20260901144717 | 66 | 60 | 3.5 | 6.1 | 0.00 | 0.00 | 0.00 | 73 | 1021.8 |
| 20260901144703 | 66 | 58 | 1.7 | 6.1 | 0.00 | 0.00 | 0.00 | 74 | 1021.8 |
| 20260901144603 | 66 | 52 | 1.7 | 6.1 | 0.00 | 0.00 | 0.00 | 74 | 1021.9 |
| 20260901144403 | 65 | 62 | 1.7 | 6.1 | 0.00 | 0.00 | 0.00 | 76 | 1021.7 |
| 20260901144303 | 65 | 62 | 2.6 | 7.0 | 0.00 | 0.00 | 0.00 | 75 | 1021.7 |
| 20260901144203 | 65 | 95 | 2.6 | 7.0 | 0.00 | 0.00 | 0.00 | 75 | 1021.7 |
| 20260901144103 | 65 | 94 | 1.7 | 7.0 | 0.00 | 0.00 | 0.00 | 76 | 1021.9 |
| 20260901144017 | 65 | 98 | 1.7 | 7.0 | 0.00 | 0.00 | 0.00 | 76 | 1021.9 |
| 20260901144003 | 65 | 99 | 1.7 | 7.0 | 0.00 | 0.00 | 0.00 | 76 | 1021.9 |
| 20260901143903 | 65 | 88 | 3.5 | 7.0 | 0.00 | 0.00 | 0.00 | 76 | 1021.8 |
| 20260901143703 | 64 | 57 | 4.3 | 7.0 | 0.00 | 0.00 | 0.00 | 76 | 1021.9 |
| 20260901143603 | 65 | 60 | 3.5 | 7.0 | 0.00 | 0.00 | 0.00 | 75 | 1021.8 |
| 20260901143503 | 65 | 50 | 3.5 | 7.8 | 0.00 | 0.00 | 0.00 | 75 | 1021.9 |
| 20260901143403 | 65 | 53 | 3.5 | 7.8 | 0.00 | 0.00 | 0.00 | 75 | 1021.9 |
| 20260901143303 | 65 | 54 | 3.5 | 7.8 | 0.00 | 0.00 | 0.00 | 75 | 1022.1 |
| 20260901143203 | 65 | 56 | 2.6 | 7.8 | 0.00 | 0.00 | 0.00 | 74 | 1022.1 |
| 20260901143103 | 66 | 49 | 4.3 | 7.8 | 0.00 | 0.00 | 0.00 | 73 | 1022.3 |
| 20260901143003 | 66 | 61 | 1.7 | 5.2 | 0.00 | 0.00 | 0.00 | 73 | 1022.1 |
| 20260901142903 | 66 | 60 | 1.7 | 5.2 | 0.00 | 0.00 | 0.00 | 74 | 1022.1 |
| 20260901142803 | 66 | 59 | 1.7 | 5.2 | 0.00 | 0.00 | 0.00 | 74 | 1022.0 |
| 20260901142703 | 66 | 54 | 2.6 | 5.2 | 0.00 | 0.00 | 0.00 | 73 | 1022.0 |
| 20260901142617 | 66 | 54 | 0.9 | 7.0 | 0.00 | 0.00 | 0.00 | 74 | 1022.2 |
| 20260901142603 | 66 | 56 | 0.9 | 7.0 | 0.00 | 0.00 | 0.00 | 74 | 1022.2 |
| 20260901142503 | 65 | 53 | 2.6 | 7.0 | 0.00 | 0.00 | 0.00 | 74 | 1022.2 |
| 20260901142305 | 66 | 70 | 1.7 | 7.0 | 0.00 | 0.00 | 0.00 | 74 | 1022.2 |
| 20260901142203 | 66 | 77 | 0.9 | 7.0 | 0.00 | 0.00 | 0.00 | 74 | 1021.9 |
| 20260901142103 | 65 | 78 | 3.5 | 7.0 | 0.00 | 0.00 | 0.00 | 74 | 1022.1 |
| 20260901142017 | 66 | 87 | 3.5 | 5.2 | 0.00 | 0.00 | 0.00 | 73 | 1022.2 |
| 20260901142003 | 66 | 91 | 3.5 | 5.2 | 0.00 | 0.00 | 0.00 | 73 | 1022.2 |
| 20260901141903 | 66 | 104 | 1.7 | 6.1 | 0.00 | 0.00 | 0.00 | 72 | 1022.1 |
| 20260901141703 | 67 | 71 | 1.7 | 6.1 | 0.00 | 0.00 | 0.00 | 71 | 1022.1 |
| 20260901141603 | 68 | 74 | 0.9 | 6.1 | 0.00 | 0.00 | 0.00 | 72 | 1022.2 |
| 20260901141517 | 67 | 64 | 1.7 | 6.1 | 0.00 | 0.00 | 0.00 | 72 | 1022.0 |
| 20260901141503 | 67 | 55 | 3.5 | 6.1 | 0.00 | 0.00 | 0.00 | 71 | 1022.1 |
| 20260901141403 | 67 | 340 | 2.6 | 6.1 | 0.00 | 0.00 | 0.00 | 71 | 1022.2 |
| 20260901141217 | 67 | 164 | 0.9 | 3.5 | 0.00 | 0.00 | 0.00 | 72 | 1022.0 |
| 20260901141203 | 67 | 154 | 0.9 | 3.5 | 0.00 | 0.00 | 0.00 | 72 | 1022.0 |
| 20260901141118 | 67 | 102 | 0.9 | 3.5 | 0.00 | 0.00 | 0.00 | 72 | 1021.8 |
| 20260901141103 | 67 | 94 | 0.0 | 3.5 | 0.00 | 0.00 | 0.00 | 72 | 1022.2 |
| 20260901141017 | 67 | 80 | 1.7 | 3.5 | 0.00 | 0.00 | 0.00 | 72 | 1022.1 |
| 20260901140718 | 67 | 56 | 0.0 | 3.5 | 0.00 | 0.00 | 0.00 | 72 | 1021.8 |
| 20260901140703 | 67 | 53 | 1.7 | 3.5 | 0.00 | 0.00 | 0.00 | 72 | 1021.9 |
| 20260901140617 | 67 | 48 | 1.7 | 3.5 | 0.00 | 0.00 | 0.00 | 72 | 1022.0 |
| 20260901140603 | 67 | 47 | 1.7 | 3.5 | 0.00 | 0.00 | 0.00 | 72 | 1022.0 |
| 20260901140317 | 66 | 29 | 2.6 | 5.2 | 0.00 | 0.00 | 0.00 | 73 | 1021.7 |
| 20260901140303 | 66 | 27 | 1.7 | 5.2 | 0.00 | 0.00 | 0.00 | 73 | 1021.7 |
| 20260901140203 | 66 | 26 | 1.7 | 5.2 | 0.00 | 0.00 | 0.00 | 73 | 1021.9 |
| 20260901140003 | 66 | 170 | 2.6 | 5.2 | 0.00 | 0.00 | 0.00 | 73 | 1021.8 |
| 20260901135917 | 67 | 153 | 0.9 | 3.5 | 0.00 | 0.00 | 0.00 | 73 | 1021.6 |
| 20260901135903 | 67 | 148 | 0.9 | 3.5 | 0.00 | 0.00 | 0.00 | 73 | 1021.7 |
| 20260901135803 | 66 | 137 | 0.0 | 3.5 | 0.00 | 0.00 | 0.00 | 73 | 1021.9 |
| 20260901135603 | 65 | 175 | 1.7 | 3.5 | 0.00 | 0.00 | 0.00 | 73 | 1021.8 |
| 20260901135517 | 66 | 146 | 2.6 | 3.5 | 0.00 | 0.00 | 0.00 | 72 | 1021.7 |
| 20260901135503 | 66 | 139 | 1.7 | 3.5 | 0.00 | 0.00 | 0.00 | 72 | 1021.7 |
| 20260901135403 | 67 | 144 | 0.9 | 3.5 | 0.00 | 0.00 | 0.00 | 73 | 1021.8 |
| 20260901135203 | 66 | 135 | 0.9 | 3.5 | 0.00 | 0.00 | 0.00 | 74 | 1021.8 |
| 20260901135103 | 65 | 116 | 1.7 | 3.5 | 0.00 | 0.00 | 0.00 | 75 | 1021.6 |
| 20260901135003 | 65 | 155 | 1.7 | 3.5 | 0.00 | 0.00 | 0.00 | 75 | 1021.8 |
| 20260901134903 | 65 | 195 | 1.7 | 3.5 | 0.00 | 0.00 | 0.00 | 75 | 1021.7 |
| 20260901134818 | 65 | 206 | 0.9 | 3.5 | 0.00 | 0.00 | 0.00 | 75 | 1022.0 |
| 20260901134803 | 65 | 207 | 0.9 | 3.5 | 0.00 | 0.00 | 0.00 | 75 | 1022.0 |
| 20260901134703 | 65 | 205 | 1.7 | 5.2 | 0.00 | 0.00 | 0.00 | 76 | 1021.8 |
| 20260901134503 | 65 | 169 | 1.7 | 5.2 | 0.00 | 0.00 | 0.00 | 75 | 1021.9 |
| 20260901134418 | 65 | 160 | 1.7 | 5.2 | 0.00 | 0.00 | 0.00 | 75 | 1022.0 |
| 20260901134403 | 65 | 154 | 1.7 | 5.2 | 0.00 | 0.00 | 0.00 | 75 | 1022.0 |
| 20260901134317 | 65 | 150 | 1.7 | 5.2 | 0.00 | 0.00 | 0.00 | 75 | 1021.7 |
| 20260901134303 | 65 | 147 | 2.6 | 5.2 | 0.00 | 0.00 | 0.00 | 75 | 1021.8 |
| 20260901134003 | 65 | 142 | 0.9 | 5.2 | 0.00 | 0.00 | 0.00 | 75 | 1021.9 |
| 20260901133917 | 65 | 174 | 1.7 | 5.2 | 0.00 | 0.00 | 0.00 | 75 | 1022.1 |
| 20260901133903 | 66 | 181 | 0.9 | 5.2 | 0.00 | 0.00 | 0.00 | 76 | 1021.9 |
| 20260901133817 | 65 | 182 | 0.0 | 5.2 | 0.00 | 0.00 | 0.00 | 76 | 1021.8 |
| 20260901133803 | 65 | 185 | 0.0 | 5.2 | 0.00 | 0.00 | 0.00 | 76 | 1021.8 |
| 20260901133503 | 64 | 216 | 1.7 | 3.5 | 0.00 | 0.00 | 0.00 | 77 | 1021.7 |
| 20260901133418 | 64 | 216 | 1.7 | 3.5 | 0.00 | 0.00 | 0.00 | 77 | 1021.9 |
| 20260901133403 | 64 | 220 | 1.7 | 3.5 | 0.00 | 0.00 | 0.00 | 77 | 1021.9 |
| 20260901133303 | 64 | 208 | 1.7 | 3.5 | 0.00 | 0.00 | 0.00 | 76 | 1021.9 |
| 20260901133103 | 65 | 90 | 0.9 | 6.1 | 0.00 | 0.00 | 0.00 | 75 | 1021.8 |
| 20260901133003 | 65 | 93 | 1.7 | 6.1 | 0.00 | 0.00 | 0.00 | 75 | 1021.8 |
| 20260901132903 | 65 | 85 | 1.7 | 6.1 | 0.00 | 0.00 | 0.00 | 75 | 1021.7 |
| 20260901132803 | 65 | 83 | 1.7 | 6.1 | 0.00 | 0.00 | 0.00 | 75 | 1021.9 |
| 20260901132703 | 65 | 95 | 1.7 | 3.5 | 0.00 | 0.00 | 0.00 | 75 | 1021.9 |
| 20260901132603 | 65 | 79 | 1.7 | 3.5 | 0.00 | 0.00 | 0.00 | 75 | 1021.9 |
| 20260901132503 | 65 | 80 | 1.7 | 5.2 | 0.00 | 0.00 | 0.00 | 75 | 1021.9 |
| 20260901132403 | 65 | 68 | 0.0 | 5.2 | 0.00 | 0.00 | 0.00 | 76 | 1021.7 |
| 20260901132306 | 64 | 88 | 1.7 | 6.1 | 0.00 | 0.00 | 0.00 | 76 | 1021.9 |
| 20260901132203 | 64 | 98 | 1.7 | 6.1 | 0.00 | 0.00 | 0.00 | 76 | 1021.9 |
| 20260901132118 | 64 | 108 | 1.7 | 6.1 | 0.00 | 0.00 | 0.00 | 76 | 1021.7 |
| 20260901132103 | 64 | 110 | 1.7 | 6.1 | 0.00 | 0.00 | 0.00 | 76 | 1021.7 |
| 20260901132003 | 64 | 103 | 2.6 | 6.1 | 0.00 | 0.00 | 0.00 | 76 | 1022.0 |
| 20260901131803 | 64 | 95 | 3.5 | 6.1 | 0.00 | 0.00 | 0.00 | 76 | 1021.9 |
| 20260901131703 | 64 | 93 | 3.5 | 5.2 | 0.00 | 0.00 | 0.00 | 76 | 1021.8 |
| 20260901131517 | 64 | 128 | 1.7 | 7.8 | 0.00 | 0.00 | 0.00 | 76 | 1021.9 |
| 20260901131503 | 64 | 123 | 1.7 | 9.6 | 0.00 | 0.00 | 0.00 | 77 | 1021.7 |
| 20260901131403 | 64 | 117 | 1.7 | 9.6 | 0.00 | 0.00 | 0.00 | 77 | 1021.7 |
| 20260901131103 | 62 | 94 | 5.2 | 9.6 | 0.00 | 0.00 | 0.00 | 77 | 1021.9 |
| 20260901131018 | 63 | 93 | 5.2 | 9.6 | 0.00 | 0.00 | 0.00 | 77 | 1021.7 |
| 20260901131003 | 63 | 96 | 5.2 | 9.6 | 0.00 | 0.00 | 0.00 | 77 | 1021.7 |
| 20260901130903 | 63 | 103 | 3.5 | 7.8 | 0.00 | 0.00 | 0.00 | 77 | 1021.7 |
| 20260901130703 | 63 | 104 | 3.5 | 7.8 | 0.00 | 0.00 | 0.00 | 78 | 1021.8 |
| 20260901130603 | 62 | 105 | 4.3 | 7.8 | 0.00 | 0.00 | 0.00 | 78 | 1021.5 |
| 20260901130503 | 63 | 99 | 1.7 | 9.6 | 0.00 | 0.00 | 0.00 | 78 | 1021.7 |
| 20260901130403 | 63 | 90 | 2.6 | 9.6 | 0.00 | 0.00 | 0.00 | 79 | 1021.9 |
| 20260901130303 | 63 | 83 | 3.5 | 9.6 | 0.00 | 0.00 | 0.00 | 78 | 1021.9 |
| 20260901130203 | 63 | 84 | 1.7 | 9.6 | 0.00 | 0.00 | 0.00 | 79 | 1021.6 |
| 20260901130103 | 62 | 77 | 3.5 | 9.6 | 0.00 | 0.00 | 0.00 | 78 | 1021.6 |
| 20260901130003 | 63 | 54 | 4.3 | 9.6 | 0.00 | 0.00 | 0.00 | 78 | 1021.6 |
| 20260901125903 | 63 | 67 | 1.7 | 9.6 | 0.00 | 0.00 | 0.00 | 78 | 1021.7 |
| 20260901125817 | 63 | 71 | 1.7 | 9.6 | 0.00 | 0.00 | 0.00 | 78 | 1021.8 |
| 20260901125803 | 63 | 77 | 1.7 | 9.6 | 0.00 | 0.00 | 0.00 | 78 | 1021.8 |
| 20260901125703 | 63 | 79 | 2.6 | 9.6 | 0.00 | 0.00 | 0.00 | 78 | 1021.7 |
| 20260901125503 | 63 | 109 | 2.6 | 9.6 | 0.00 | 0.00 | 0.00 | 79 | 1021.8 |
| 20260901125403 | 62 | 110 | 3.5 | 9.6 | 0.00 | 0.00 | 0.00 | 79 | 1021.7 |
| 20260901125308 | 62 | 125 | 3.5 | 6.1 | 0.00 | 0.00 | 0.00 | 79 | 1021.6 |
| 20260901125203 | 62 | 115 | 1.7 | 6.1 | 0.00 | 0.00 | 0.00 | 79 | 1021.6 |
| 20260901125117 | 62 | 120 | 0.9 | 6.1 | 0.00 | 0.00 | 0.00 | 79 | 1021.7 |
| 20260901125103 | 62 | 119 | 2.6 | 6.1 | 0.00 | 0.00 | 0.00 | 79 | 1021.6 |
| 20260901125003 | 62 | 107 | 2.6 | 6.1 | 0.00 | 0.00 | 0.00 | 79 | 1021.7 |
| 20260901124803 | 62 | 88 | 3.5 | 6.1 | 0.00 | 0.00 | 0.00 | 79 | 1021.4 |
| 20260901124703 | 63 | 117 | 1.7 | 5.2 | 0.00 | 0.00 | 0.00 | 79 | 1021.4 |
| 20260901124603 | 63 | 113 | 0.9 | 5.2 | 0.00 | 0.00 | 0.00 | 81 | 1021.6 |
| 20260901124504 | 63 | 103 | 0.9 | 5.2 | 0.00 | 0.00 | 0.00 | 81 | 1021.5 |
| 20260901124403 | 62 | 105 | 1.7 | 5.2 | 0.00 | 0.00 | 0.00 | 81 | 1021.5 |
| 20260901124303 | 62 | 113 | 3.5 | 7.0 | 0.00 | 0.00 | 0.00 | 81 | 1021.4 |
| 20260901124203 | 62 | 115 | 1.7 | 7.0 | 0.00 | 0.00 | 0.00 | 81 | 1021.4 |
| 20260901124103 | 62 | 115 | 0.9 | 7.0 | 0.00 | 0.00 | 0.00 | 82 | 1021.5 |
| 20260901124018 | 62 | 117 | 1.7 | 7.0 | 0.00 | 0.00 | 0.00 | 82 | 1021.4 |
| 20260901124003 | 62 | 118 | 1.7 | 7.0 | 0.00 | 0.00 | 0.00 | 82 | 1021.4 |
| 20260901123903 | 62 | 122 | 1.7 | 7.0 | 0.00 | 0.00 | 0.00 | 82 | 1021.5 |
| 20260901123703 | 62 | 133 | 1.7 | 5.2 | 0.00 | 0.00 | 0.00 | 83 | 1021.4 |
| 20260901123618 | 62 | 129 | 0.9 | 3.5 | 0.00 | 0.00 | 0.00 | 83 | 1021.6 |
| 20260901123603 | 62 | 128 | 0.9 | 3.5 | 0.00 | 0.00 | 0.00 | 83 | 1021.6 |
| 20260901123503 | 61 | 130 | 0.9 | 5.2 | 0.00 | 0.00 | 0.00 | 84 | 1021.5 |
| 20260901123303 | 61 | 110 | 0.9 | 5.2 | 0.00 | 0.00 | 0.00 | 84 | 1021.6 |
| 20260901123203 | 61 | 107 | 1.7 | 5.2 | 0.00 | 0.00 | 0.00 | 84 | 1021.5 |
| 20260901123103 | 60 | 108 | 2.6 | 5.2 | 0.00 | 0.00 | 0.00 | 85 | 1021.2 |
| 20260901123003 | 60 | 98 | 3.5 | 5.2 | 0.00 | 0.00 | 0.00 | 85 | 1021.5 |
| 20260901122903 | 60 | 104 | 1.7 | 3.5 | 0.00 | 0.00 | 0.00 | 85 | 1021.8 |
| 20260901122803 | 60 | 119 | 0.9 | 3.5 | 0.00 | 0.00 | 0.00 | 86 | 1021.4 |
| 20260901122703 | 60 | 122 | 0.9 | 3.5 | 0.00 | 0.00 | 0.00 | 87 | 1021.4 |
| 20260901122603 | 60 | 133 | 1.7 | 3.5 | 0.00 | 0.00 | 0.00 | 87 | 1021.4 |
| 20260901122503 | 59 | 145 | 1.7 | 3.5 | 0.00 | 0.00 | 0.00 | 87 | 1021.4 |
| 20260901122403 | 59 | 141 | 0.9 | 5.2 | 0.00 | 0.00 | 0.00 | 87 | 1021.6 |
| 20260901122306 | 59 | 145 | 1.7 | 5.2 | 0.00 | 0.00 | 0.00 | 88 | 1021.4 |
| 20260901122203 | 59 | 147 | 1.7 | 5.2 | 0.00 | 0.00 | 0.00 | 88 | 1021.7 |
| 20260901122103 | 58 | 158 | 1.7 | 5.2 | 0.00 | 0.00 | 0.00 | 88 | 1021.5 |
| 20260901122003 | 58 | 153 | 2.6 | 5.2 | 0.00 | 0.00 | 0.00 | 88 | 1021.5 |
| 20260901121917 | 58 | 141 | 2.6 | 5.2 | 0.00 | 0.00 | 0.00 | 88 | 1021.6 |
| 20260901121903 | 59 | 142 | 1.7 | 5.2 | 0.00 | 0.00 | 0.00 | 89 | 1021.5 |
| 20260901121803 | 58 | 125 | 1.7 | 5.2 | 0.00 | 0.00 | 0.00 | 89 | 1021.7 |
| 20260901121603 | 58 | 134 | 1.7 | 3.5 | 0.00 | 0.00 | 0.00 | 89 | 1021.6 |
| 20260901121503 | 58 | 149 | 0.9 | 3.5 | 0.00 | 0.00 | 0.00 | 90 | 1021.7 |
| 20260901121403 | 58 | 179 | 0.9 | 3.5 | 0.00 | 0.00 | 0.00 | 90 | 1021.5 |
| 20260901121303 | 58 | 199 | 0.9 | 3.5 | 0.00 | 0.00 | 0.00 | 91 | 1021.6 |
| 20260901121203 | 58 | 204 | 0.9 | 3.5 | 0.00 | 0.00 | 0.00 | 91 | 1021.7 |
| 20260901121103 | 57 | 200 | 1.7 | 3.5 | 0.00 | 0.00 | 0.00 | 91 | 1021.5 |
| 20260901121003 | 57 | 173 | 1.7 | 3.5 | 0.00 | 0.00 | 0.00 | 91 | 1021.5 |
| 20260901120903 | 58 | 165 | 0.9 | 1.7 | 0.00 | 0.00 | 0.00 | 91 | 1021.8 |
| 20260901120803 | 58 | 144 | 1.7 | 1.7 | 0.00 | 0.00 | 0.00 | 91 | 1021.3 |
| 20260901120703 | 57 | 139 | 0.9 | 1.7 | 0.00 | 0.00 | 0.00 | 92 | 1021.5 |
| 20260901120603 | 58 | 160 | 0.0 | 3.5 | 0.00 | 0.00 | 0.00 | 92 | 1021.3 |
| 20260901120503 | 58 | 173 | 0.9 | 3.5 | 0.00 | 0.00 | 0.00 | 92 | 1021.4 |
| 20260901120403 | 58 | 177 | 0.0 | 3.5 | 0.00 | 0.00 | 0.00 | 92 | 1021.3 |
| 20260901120303 | 57 | 186 | 0.9 | 3.5 | 0.00 | 0.00 | 0.00 | 93 | 1021.3 |
| 20260901120203 | 57 | 188 | 0.0 | 3.5 | 0.00 | 0.00 | 0.00 | 93 | 1021.6 |
| 20260901120003 | 57 | 161 | 0.9 | 3.5 | 0.00 | 0.00 | 0.00 | 93 | 1021.2 |
| 20260901115903 | 57 | 161 | 0.0 | 3.5 | 0.00 | 0.00 | 0.00 | 94 | 1021.3 |
| 20260901115803 | 56 | 154 | 0.9 | 3.5 | 0.00 | 0.00 | 0.00 | 93 | 1021.0 |
| 20260901115703 | 57 | 125 | 0.9 | 3.5 | 0.00 | 0.00 | 0.00 | 94 | 1021.2 |
| 20260901115603 | 57 | 118 | 0.9 | 3.5 | 0.00 | 0.00 | 0.00 | 94 | 1021.2 |
| 20260901115503 | 57 | 118 | 0.0 | 1.7 | 0.00 | 0.00 | 0.00 | 94 | 1021.0 |
| 20260901115403 | 57 | 116 | 0.0 | 3.5 | 0.00 | 0.00 | 0.00 | 94 | 1021.0 |
| 20260901115306 | 56 | 111 | 0.0 | 3.5 | 0.00 | 0.00 | 0.00 | 94 | 1021.1 |
| 20260901115203 | 57 | 106 | 0.0 | 3.5 | 0.00 | 0.00 | 0.00 | 94 | 1021.3 |
| 20260901115103 | 56 | 117 | 0.0 | 3.5 | 0.00 | 0.00 | 0.00 | 95 | 1021.0 |
| 20260901115003 | 56 | 131 | 0.0 | 3.5 | 0.00 | 0.00 | 0.00 | 95 | 1021.1 |
| 20260901114903 | 56 | 139 | 1.7 | 3.5 | 0.00 | 0.00 | 0.00 | 95 | 1021.2 |
| 20260901114803 | 56 | 148 | 0.9 | 1.7 | 0.00 | 0.00 | 0.00 | 95 | 1021.2 |
| 20260901114703 | 56 | 154 | 0.0 | 3.5 | 0.00 | 0.00 | 0.00 | 95 | 1021.1 |
| 20260901114603 | 56 | 125 | 0.9 | 3.5 | 0.00 | 0.00 | 0.00 | 95 | 1021.1 |
| 20260901114503 | 56 | 120 | 0.9 | 3.5 | 0.00 | 0.00 | 0.00 | 95 | 1021.1 |
| 20260901114403 | 56 | 118 | 0.0 | 3.5 | 0.00 | 0.00 | 0.00 | 95 | 1021.1 |
| 20260901114303 | 55 | 119 | 0.0 | 3.5 | 0.00 | 0.00 | 0.00 | 95 | 1021.1 |
| 20260901114203 | 55 | 139 | 1.7 | 3.5 | 0.00 | 0.00 | 0.00 | 95 | 1021.2 |
| 20260901114117 | 56 | 163 | 0.0 | 3.5 | 0.00 | 0.00 | 0.00 | 95 | 1021.0 |
| 20260901114103 | 56 | 166 | 0.0 | 3.5 | 0.00 | 0.00 | 0.00 | 95 | 1021.0 |
| 20260901114003 | 55 | 203 | 0.9 | 3.5 | 0.00 | 0.00 | 0.00 | 95 | 1021.0 |
| 20260901113803 | 55 | 188 | 0.9 | 3.5 | 0.00 | 0.00 | 0.00 | 96 | 1020.8 |
| 20260901113703 | 55 | 158 | 0.0 | 3.5 | 0.00 | 0.00 | 0.00 | 96 | 1021.0 |
| 20260901113603 | 55 | 154 | 0.9 | 3.5 | 0.00 | 0.00 | 0.00 | 96 | 1021.1 |
| 20260901113503 | 55 | 117 | 0.9 | 3.5 | 0.00 | 0.00 | 0.00 | 96 | 1021.0 |
| 20260901113403 | 55 | 101 | 0.9 | 1.7 | 0.00 | 0.00 | 0.00 | 96 | 1020.8 |
| 20260901113303 | 55 | 108 | 0.9 | 1.7 | 0.00 | 0.00 | 0.00 | 96 | 1020.8 |
| 20260901113218 | 55 | 90 | 0.9 | 1.7 | 0.00 | 0.00 | 0.00 | 96 | 1021.1 |
| 20260901113203 | 55 | 71 | 0.9 | 1.7 | 0.00 | 0.00 | 0.00 | 96 | 1021.1 |
| 20260901113103 | 55 | 112 | 0.9 | 1.7 | 0.00 | 0.00 | 0.00 | 96 | 1020.8 |
| 20260901112903 | 55 | 46 | 0.0 | 3.5 | 0.00 | 0.00 | 0.00 | 96 | 1020.8 |
| 20260901112803 | 55 | 46 | 0.0 | 3.5 | 0.00 | 0.00 | 0.00 | 96 | 1020.7 |
| 20260901112703 | 55 | 168 | 0.0 | 3.5 | 0.00 | 0.00 | 0.00 | 96 | 1020.8 |
| 20260901112603 | 55 | 173 | 0.0 | 3.5 | 0.00 | 0.00 | 0.00 | 96 | 1020.8 |
| 20260901112503 | 54 | 136 | 1.7 | 3.5 | 0.00 | 0.00 | 0.00 | 96 | 1020.9 |
| 20260901112403 | 54 | 135 | 0.0 | 3.5 | 0.00 | 0.00 | 0.00 | 96 | 1020.7 |
| 20260901112306 | 54 | 139 | 0.9 | 3.5 | 0.00 | 0.00 | 0.00 | 96 | 1020.7 |
| 20260901112203 | 54 | 136 | 0.0 | 1.7 | 0.00 | 0.00 | 0.00 | 96 | 1020.6 |
| 20260901112103 | 55 | 137 | 0.0 | 1.7 | 0.00 | 0.00 | 0.00 | 96 | 1020.7 |
| 20260901112003 | 54 | 147 | 0.0 | 1.7 | 0.00 | 0.00 | 0.00 | 96 | 1020.7 |
| 20260901111903 | 54 | 153 | 0.0 | 1.7 | 0.00 | 0.00 | 0.00 | 96 | 1020.8 |
| 20260901111803 | 54 | 167 | 0.0 | 1.7 | 0.00 | 0.00 | 0.00 | 96 | 1020.8 |
| 20260901111703 | 54 | 186 | 0.0 | 1.7 | 0.00 | 0.00 | 0.00 | 96 | 1020.8 |
| 20260901111603 | 54 | 194 | 0.0 | 1.7 | 0.00 | 0.00 | 0.00 | 96 | 1020.5 |
| 20260901111503 | 54 | 209 | 0.9 | 1.7 | 0.00 | 0.00 | 0.00 | 96 | 1020.7 |
| 20260901111403 | 54 | 217 | 0.9 | 3.5 | 0.00 | 0.00 | 0.00 | 96 | 1020.8 |
| 20260901111317 | 54 | 213 | 0.9 | 3.5 | 0.00 | 0.00 | 0.00 | 96 | 1020.7 |
| 20260901111303 | 54 | 212 | 0.9 | 3.5 | 0.00 | 0.00 | 0.00 | 96 | 1020.7 |
| 20260901111204 | 54 | 208 | 0.0 | 3.5 | 0.00 | 0.00 | 0.00 | 96 | 1020.7 |
| 20260901111003 | 53 | 213 | 0.9 | 3.5 | 0.00 | 0.00 | 0.00 | 96 | 1020.6 |
| 20260901110903 | 53 | 223 | 1.7 | 3.5 | 0.00 | 0.00 | 0.00 | 96 | 1020.8 |
| 20260901110803 | 54 | 234 | 0.9 | 3.5 | 0.00 | 0.00 | 0.00 | 96 | 1020.6 |
| 20260901110703 | 53 | 224 | 0.0 | 3.5 | 0.00 | 0.00 | 0.00 | 96 | 1020.8 |
| 20260901110605 | 53 | 227 | 0.9 | 3.5 | 0.00 | 0.00 | 0.00 | 96 | 1020.7 |
| 20260901110503 | 53 | 218 | 0.9 | 1.7 | 0.00 | 0.00 | 0.00 | 96 | 1020.7 |
| 20260901110403 | 53 | 196 | 0.0 | 1.7 | 0.00 | 0.00 | 0.00 | 96 | 1020.7 |
| 20260901110318 | 53 | 163 | 0.9 | 3.5 | 0.00 | 0.00 | 0.00 | 96 | 1020.7 |
| 20260901110303 | 53 | 159 | 0.9 | 3.5 | 0.00 | 0.00 | 0.00 | 96 | 1020.7 |
| 20260901110218 | 53 | 165 | 0.9 | 3.5 | 0.00 | 0.00 | 0.00 | 96 | 1020.7 |
| 20260901110203 | 53 | 163 | 0.9 | 3.5 | 0.00 | 0.00 | 0.00 | 96 | 1020.7 |
| 20260901110017 | 53 | 139 | 0.0 | 3.5 | 0.00 | 0.00 | 0.00 | 96 | 1020.7 |
| 20260901105903 | 53 | 151 | 0.9 | 3.5 | 0.00 | 0.00 | 0.00 | 96 | 1020.4 |
| 20260901105703 | 53 | 171 | 0.9 | 3.5 | 0.00 | 0.00 | 0.00 | 96 | 1020.6 |
| 20260901105603 | 53 | 158 | 0.9 | 5.2 | 0.00 | 0.00 | 0.00 | 96 | 1020.8 |
| 20260901105503 | 53 | 151 | 0.0 | 5.2 | 0.00 | 0.00 | 0.00 | 96 | 1020.8 |
| 20260901105403 | 53 | 148 | 0.9 | 5.2 | 0.00 | 0.00 | 0.00 | 96 | 1020.5 |
| 20260901105305 | 53 | 137 | 0.9 | 5.2 | 0.00 | 0.00 | 0.00 | 96 | 1020.8 |
| 20260901105203 | 53 | 143 | 0.9 | 5.2 | 0.00 | 0.00 | 0.00 | 96 | 1020.6 |
| 20260901105103 | 53 | 166 | 1.7 | 3.5 | 0.00 | 0.00 | 0.00 | 96 | 1020.6 |
| 20260901105003 | 53 | 177 | 0.9 | 5.2 | 0.00 | 0.00 | 0.00 | 96 | 1020.7 |
| 20260901104903 | 53 | 194 | 0.9 | 7.0 | 0.00 | 0.00 | 0.00 | 96 | 1020.6 |
| 20260901104803 | 53 | 197 | 1.7 | 7.0 | 0.00 | 0.00 | 0.00 | 96 | 1020.5 |
| 20260901104717 | 53 | 186 | 1.7 | 7.0 | 0.00 | 0.00 | 0.00 | 96 | 1020.8 |
| 20260901104703 | 53 | 182 | 1.7 | 7.0 | 0.00 | 0.00 | 0.00 | 96 | 1020.5 |
| 20260901104603 | 53 | 180 | 1.7 | 7.0 | 0.00 | 0.00 | 0.00 | 96 | 1020.5 |
| 20260901104403 | 53 | 163 | 2.6 | 7.0 | 0.00 | 0.00 | 0.00 | 96 | 1020.6 |
| 20260901104304 | 53 | 142 | 3.5 | 7.0 | 0.00 | 0.00 | 0.00 | 96 | 1020.7 |
| 20260901104203 | 53 | 146 | 0.9 | 6.1 | 0.00 | 0.00 | 0.00 | 96 | 1020.5 |
| 20260901104103 | 53 | 149 | 0.9 | 6.1 | 0.00 | 0.00 | 0.00 | 96 | 1020.6 |
| 20260901104017 | 53 | 149 | 1.7 | 6.1 | 0.00 | 0.00 | 0.00 | 96 | 1020.6 |
| 20260901104003 | 53 | 150 | 1.7 | 6.1 | 0.00 | 0.00 | 0.00 | 96 | 1020.6 |
| 20260901103903 | 53 | 147 | 1.7 | 6.1 | 0.00 | 0.00 | 0.00 | 96 | 1020.5 |
| 20260901103703 | 53 | 202 | 0.9 | 5.2 | 0.00 | 0.00 | 0.00 | 96 | 1020.6 |
| 20260901103603 | 53 | 202 | 0.0 | 5.2 | 0.00 | 0.00 | 0.00 | 96 | 1020.4 |
| 20260901103503 | 53 | 211 | 0.9 | 5.2 | 0.00 | 0.00 | 0.00 | 96 | 1020.5 |
| 20260901103403 | 53 | 209 | 1.7 | 5.2 | 0.00 | 0.00 | 0.00 | 96 | 1020.5 |
| 20260901103303 | 53 | 207 | 1.7 | 5.2 | 0.00 | 0.00 | 0.00 | 96 | 1020.4 |
| 20260901103203 | 53 | 200 | 1.7 | 5.2 | 0.00 | 0.00 | 0.00 | 96 | 1020.3 |
| 20260901103103 | 53 | 199 | 1.7 | 5.2 | 0.00 | 0.00 | 0.00 | 96 | 1020.4 |
| 20260901103005 | 53 | 177 | 1.7 | 5.2 | 0.00 | 0.00 | 0.00 | 96 | 1020.3 |
| 20260901102904 | 53 | 180 | 1.7 | 5.2 | 0.00 | 0.00 | 0.00 | 96 | 1020.4 |
| 20260901102803 | 53 | 199 | 1.7 | 5.2 | 0.00 | 0.00 | 0.00 | 96 | 1020.3 |
| 20260901102703 | 54 | 211 | 1.7 | 3.5 | 0.00 | 0.00 | 0.00 | 96 | 1020.2 |
| 20260901102603 | 54 | 210 | 1.7 | 3.5 | 0.00 | 0.00 | 0.00 | 96 | 1020.5 |
| 20260901102503 | 54 | 225 | 1.7 | 3.5 | 0.00 | 0.00 | 0.00 | 96 | 1020.3 |
| 20260901102403 | 54 | 231 | 1.7 | 3.5 | 0.00 | 0.00 | 0.00 | 96 | 1020.2 |